Time,TemperatureF,DewpointF,PressureIn,WindDirection,WindDirectionDegrees,WindSpeedMPH,WindSpeedGustMPH,Humidity,HourlyPrecipIn,Conditions,Clouds,dailyrainin,SoftwareType,DateUTC
2013-11-11 00:01:00,44.6,30.7,30.25,ENE,71,1.0,1.0,58,0.00,,,0.00,Wunderground v.1.15,2013-11-11 05:01:00,
2013-11-11 00:02:00,44.6,30.7,30.25,ENE,71,0.0,1.0,58,0.00,,,0.00,Wunderground v.1.15,2013-11-11 05:02:00,
2013-11-11 00:07:00,44.7,30.4,30.25,ENE,70,0.0,1.0,57,0.00,,,0.00,Wunderground v.1.15,2013-11-11 05:07:00,
2013-11-11 00:08:00,44.6,29.9,30.25,ENE,69,0.0,1.0,56,0.00,,,0.00,Wunderground v.1.15,2013-11-11 05:08:00,
2013-11-11 00:09:00,44.7,30.4,30.25,ENE,70,1.0,1.0,57,0.00,,,0.00,Wunderground v.1.15,2013-11-11 05:09:00,
2013-11-11 00:10:00,44.7,30.4,30.25,ENE,70,1.0,1.0,57,0.00,,,0.00,Wunderground v.1.15,2013-11-11 05:10:00,
2013-11-11 00:11:00,44.7,30.0,30.25,ENE,70,0.0,1.0,56,0.00,,,0.00,Wunderground v.1.15,2013-11-11 05:11:00,
2013-11-11 00:13:00,44.8,30.0,30.25,ENE,70,0.0,1.0,56,0.00,,,0.00,Wunderground v.1.15,2013-11-11 05:13:00,
2013-11-11 00:14:00,44.8,30.0,30.25,ENE,70,0.0,1.0,56,0.00,,,0.00,Wunderground v.1.15,2013-11-11 05:14:00,
2013-11-11 00:16:00,44.9,30.1,30.25,ENE,70,1.0,1.0,56,0.00,,,0.00,Wunderground v.1.15,2013-11-11 05:16:00,
2013-11-11 00:17:00,44.9,29.7,30.25,ENE,69,0.0,1.0,55,0.00,,,0.00,Wunderground v.1.15,2013-11-11 05:17:00,
2013-11-11 00:18:00,44.9,29.7,30.25,ENE,70,2.0,2.0,55,0.00,,,0.00,Wunderground v.1.15,2013-11-11 05:18:00,
2013-11-11 00:20:00,45.0,29.8,30.24,ENE,70,0.0,0.0,55,0.00,,,0.00,Wunderground v.1.15,2013-11-11 05:20:00,
2013-11-11 00:25:00,45.1,29.9,30.24,ENE,70,0.0,1.0,55,0.00,,,0.00,Wunderground v.1.15,2013-11-11 05:25:00,
2013-11-11 00:26:00,45.1,29.9,30.24,ENE,69,1.0,1.0,55,0.00,,,0.00,Wunderground v.1.15,2013-11-11 05:26:00,
2013-11-11 00:27:00,45.1,29.9,30.24,ENE,70,0.0,1.0,55,0.00,,,0.00,Wunderground v.1.15,2013-11-11 05:27:00,
2013-11-11 00:29:00,45.2,30.0,30.24,ENE,70,0.0,1.0,55,0.00,,,0.00,Wunderground v.1.15,2013-11-11 05:29:00,
2013-11-11 00:32:00,45.2,30.4,30.24,ENE,70,0.0,0.0,56,0.00,,,0.00,Wunderground v.1.15,2013-11-11 05:32:00,
2013-11-11 00:34:00,45.1,30.3,30.24,ENE,70,0.0,0.0,56,0.00,,,0.00,Wunderground v.1.15,2013-11-11 05:34:00,
2013-11-11 00:37:00,45.0,29.8,30.24,ENE,70,0.0,1.0,55,0.00,,,0.00,Wunderground v.1.15,2013-11-11 05:37:00,
2013-11-11 00:39:00,45.0,30.2,30.24,ENE,70,0.0,1.0,56,0.00,,,0.00,Wunderground v.1.15,2013-11-11 05:39:00,
2013-11-11 00:40:00,45.0,30.2,30.24,ENE,69,0.0,0.0,56,0.00,,,0.00,Wunderground v.1.15,2013-11-11 05:40:00,
2013-11-11 00:44:00,44.8,30.0,30.25,ENE,70,0.0,0.0,56,0.00,,,0.00,Wunderground v.1.15,2013-11-11 05:44:00,
2013-11-11 00:45:00,44.7,30.0,30.24,ENE,70,0.0,0.0,56,0.00,,,0.00,Wunderground v.1.15,2013-11-11 05:45:00,
2013-11-11 00:48:00,44.6,29.9,30.24,ENE,69,0.0,0.0,56,0.00,,,0.00,Wunderground v.1.15,2013-11-11 05:48:00,
2013-11-11 00:49:00,44.5,29.8,30.24,ENE,69,0.0,0.0,56,0.00,,,0.00,Wunderground v.1.15,2013-11-11 05:49:00,
2013-11-11 00:50:00,44.4,29.7,30.24,ENE,69,0.0,1.0,56,0.00,,,0.00,Wunderground v.1.15,2013-11-11 05:50:00,
2013-11-11 00:51:00,44.4,29.2,30.24,ENE,69,0.0,1.0,55,0.00,,,0.00,Wunderground v.1.15,2013-11-11 05:51:00,
2013-11-11 00:53:00,44.4,29.7,30.24,ENE,69,0.0,1.0,56,0.00,,,0.00,Wunderground v.1.15,2013-11-11 05:53:00,
2013-11-11 00:54:00,44.4,29.7,30.24,ENE,69,0.0,1.0,56,0.00,,,0.00,Wunderground v.1.15,2013-11-11 05:54:00,
2013-11-11 00:56:00,44.4,29.7,30.24,ENE,69,0.0,1.0,56,0.00,,,0.00,Wunderground v.1.15,2013-11-11 05:56:00,
2013-11-11 00:58:00,44.4,29.7,30.24,ENE,69,0.0,1.0,56,0.00,,,0.00,Wunderground v.1.15,2013-11-11 05:58:00,
2013-11-11 00:59:00,44.4,29.7,30.24,ENE,69,1.0,1.0,56,0.00,,,0.00,Wunderground v.1.15,2013-11-11 05:59:00,
2013-11-11 01:00:00,44.4,29.7,30.25,ENE,69,0.0,0.0,56,0.00,,,0.00,Wunderground v.1.15,2013-11-11 06:00:00,
2013-11-11 01:02:00,44.5,29.8,30.25,ENE,69,0.0,1.0,56,0.00,,,0.00,Wunderground v.1.15,2013-11-11 06:02:00,
2013-11-11 01:04:00,44.5,29.8,30.25,ENE,69,0.0,1.0,56,0.00,,,0.00,Wunderground v.1.15,2013-11-11 06:04:00,
2013-11-11 01:05:00,44.5,29.8,30.25,ENE,69,0.0,1.0,56,0.00,,,0.00,Wunderground v.1.15,2013-11-11 06:05:00,
2013-11-11 01:06:00,44.5,29.8,30.24,ENE,69,0.0,1.0,56,0.00,,,0.00,Wunderground v.1.15,2013-11-11 06:06:00,
2013-11-11 01:07:00,44.5,30.2,30.24,ENE,69,0.0,1.0,57,0.00,,,0.00,Wunderground v.1.15,2013-11-11 06:07:00,
2013-11-11 01:10:00,44.5,29.8,30.24,ENE,69,2.0,2.0,56,0.00,,,0.00,Wunderground v.1.15,2013-11-11 06:10:00,
2013-11-11 01:11:00,44.5,29.8,30.25,ENE,69,0.0,2.0,56,0.00,,,0.00,Wunderground v.1.15,2013-11-11 06:11:00,
2013-11-11 01:12:00,44.5,29.8,30.24,ENE,69,0.0,2.0,56,0.00,,,0.00,Wunderground v.1.15,2013-11-11 06:12:00,
2013-11-11 01:14:00,44.5,30.2,30.24,ENE,69,2.0,2.0,57,0.00,,,0.00,Wunderground v.1.15,2013-11-11 06:14:00,
2013-11-11 01:17:00,44.5,29.8,30.24,ENE,69,0.0,2.0,56,0.00,,,0.00,Wunderground v.1.15,2013-11-11 06:17:00,
2013-11-11 01:18:00,44.5,29.8,30.24,ENE,69,0.0,2.0,56,0.00,,,0.00,Wunderground v.1.15,2013-11-11 06:18:00,
2013-11-11 01:19:00,44.5,29.8,30.24,ENE,69,0.0,2.0,56,0.00,,,0.00,Wunderground v.1.15,2013-11-11 06:19:00,
2013-11-11 01:22:00,44.4,30.1,30.24,ENE,69,1.0,1.0,57,0.00,,,0.00,Wunderground v.1.15,2013-11-11 06:22:00,
2013-11-11 01:24:00,44.4,30.1,30.24,ENE,69,0.0,1.0,57,0.00,,,0.00,Wunderground v.1.15,2013-11-11 06:24:00,
2013-11-11 01:28:00,44.4,29.7,30.24,ENE,69,1.0,1.0,56,0.00,,,0.00,Wunderground v.1.15,2013-11-11 06:28:00,
2013-11-11 01:29:00,44.3,29.6,30.24,ENE,72,0.0,1.0,56,0.00,,,0.00,Wunderground v.1.15,2013-11-11 06:29:00,
2013-11-11 01:35:00,44.3,29.6,30.24,ENE,72,0.0,0.0,56,0.00,,,0.00,Wunderground v.1.15,2013-11-11 06:35:00,
2013-11-11 01:36:00,44.3,29.6,30.24,ENE,72,1.0,1.0,56,0.00,,,0.00,Wunderground v.1.15,2013-11-11 06:36:00,
2013-11-11 01:37:00,44.3,29.6,30.24,ENE,72,1.0,1.0,56,0.00,,,0.00,Wunderground v.1.15,2013-11-11 06:37:00,
2013-11-11 01:38:00,44.3,29.6,30.24,ENE,72,0.0,1.0,56,0.00,,,0.00,Wunderground v.1.15,2013-11-11 06:38:00,
2013-11-11 01:40:00,44.3,29.6,30.24,ENE,72,0.0,0.0,56,0.00,,,0.00,Wunderground v.1.15,2013-11-11 06:40:00,
2013-11-11 01:43:00,44.2,29.5,30.24,ENE,72,0.0,2.0,56,0.00,,,0.00,Wunderground v.1.15,2013-11-11 06:43:00,
2013-11-11 01:45:00,44.2,29.9,30.24,ENE,72,1.0,2.0,57,0.00,,,0.00,Wunderground v.1.15,2013-11-11 06:45:00,
2013-11-11 01:46:00,44.2,29.5,30.24,ENE,72,0.0,2.0,56,0.00,,,0.00,Wunderground v.1.15,2013-11-11 06:46:00,
2013-11-11 01:48:00,44.2,29.5,30.24,ENE,72,0.0,2.0,56,0.00,,,0.00,Wunderground v.1.15,2013-11-11 06:48:00,
2013-11-11 01:51:00,44.2,29.5,30.24,ENE,72,1.0,1.0,56,0.00,,,0.00,Wunderground v.1.15,2013-11-11 06:51:00,
2013-11-11 01:53:00,44.1,29.4,30.24,ENE,72,0.0,1.0,56,0.00,,,0.00,Wunderground v.1.15,2013-11-11 06:53:00,
2013-11-11 01:54:00,44.2,29.5,30.24,ENE,72,1.0,1.0,56,0.00,,,0.00,Wunderground v.1.15,2013-11-11 06:54:00,
2013-11-11 01:57:00,44.3,29.6,30.23,ENE,72,0.0,2.0,56,0.00,,,0.00,Wunderground v.1.15,2013-11-11 06:57:00,
2013-11-11 01:59:00,44.3,29.6,30.24,ENE,72,0.0,2.0,56,0.00,,,0.00,Wunderground v.1.15,2013-11-11 06:59:00,
2013-11-11 02:01:00,44.2,29.5,30.24,ENE,72,0.0,0.0,56,0.00,,,0.00,Wunderground v.1.15,2013-11-11 07:01:00,
2013-11-11 02:02:00,44.2,29.5,30.24,ENE,72,1.0,1.0,56,0.00,,,0.00,Wunderground v.1.15,2013-11-11 07:02:00,
2013-11-11 02:04:00,44.1,29.4,30.23,ENE,72,0.0,1.0,56,0.00,,,0.00,Wunderground v.1.15,2013-11-11 07:04:00,
2013-11-11 02:06:00,44.1,29.4,30.24,ENE,72,0.0,3.0,56,0.00,,,0.00,Wunderground v.1.15,2013-11-11 07:06:00,
2013-11-11 02:07:00,44.1,29.4,30.24,ENE,72,2.0,3.0,56,0.00,,,0.00,Wunderground v.1.15,2013-11-11 07:07:00,
2013-11-11 02:08:00,44.1,29.4,30.24,ENE,72,0.0,3.0,56,0.00,,,0.00,Wunderground v.1.15,2013-11-11 07:08:00,
2013-11-11 02:09:00,44.0,29.7,30.24,ENE,72,1.0,3.0,57,0.00,,,0.00,Wunderground v.1.15,2013-11-11 07:09:00,
2013-11-11 02:11:00,44.0,29.7,30.24,ENE,72,0.0,1.0,57,0.00,,,0.00,Wunderground v.1.15,2013-11-11 07:11:00,
2013-11-11 02:12:00,44.0,29.7,30.24,ENE,72,0.0,1.0,57,0.00,,,0.00,Wunderground v.1.15,2013-11-11 07:12:00,
2013-11-11 02:14:00,43.9,29.6,30.24,ENE,72,0.0,2.0,57,0.00,,,0.00,Wunderground v.1.15,2013-11-11 07:14:00,
2013-11-11 02:16:00,43.8,29.5,30.24,ENE,72,0.0,2.0,57,0.00,,,0.00,Wunderground v.1.15,2013-11-11 07:16:00,
2013-11-11 02:17:00,43.8,29.5,30.24,ENE,72,0.0,2.0,57,0.00,,,0.00,Wunderground v.1.15,2013-11-11 07:17:00,
2013-11-11 02:18:00,43.8,29.5,30.24,ENE,72,0.0,2.0,57,0.00,,,0.00,Wunderground v.1.15,2013-11-11 07:18:00,
2013-11-11 02:19:00,43.7,29.5,30.24,ENE,72,0.0,2.0,57,0.00,,,0.00,Wunderground v.1.15,2013-11-11 07:19:00,
2013-11-11 02:20:00,43.7,29.5,30.24,ENE,72,0.0,0.0,57,0.00,,,0.00,Wunderground v.1.15,2013-11-11 07:20:00,
2013-11-11 02:21:00,43.6,29.8,30.24,ENE,72,0.0,2.0,58,0.00,,,0.00,Wunderground v.1.15,2013-11-11 07:21:00,
2013-11-11 02:22:00,43.6,29.8,30.23,ENE,72,0.0,2.0,58,0.00,,,0.00,Wunderground v.1.15,2013-11-11 07:22:00,
2013-11-11 02:23:00,43.5,29.7,30.23,ENE,72,0.0,2.0,58,0.00,,,0.00,Wunderground v.1.15,2013-11-11 07:23:00,
2013-11-11 02:24:00,43.5,29.7,30.23,ENE,72,0.0,2.0,58,0.00,,,0.00,Wunderground v.1.15,2013-11-11 07:24:00,
2013-11-11 02:25:00,43.5,29.7,30.23,ENE,72,0.0,2.0,58,0.00,,,0.00,Wunderground v.1.15,2013-11-11 07:25:00,
2013-11-11 02:26:00,43.4,29.6,30.23,ENE,72,0.0,2.0,58,0.00,,,0.00,Wunderground v.1.15,2013-11-11 07:26:00,
2013-11-11 02:28:00,43.3,29.5,30.23,ENE,72,0.0,2.0,58,0.00,,,0.00,Wunderground v.1.15,2013-11-11 07:28:00,
2013-11-11 02:29:00,43.3,29.5,30.23,ENE,72,0.0,2.0,58,0.00,,,0.00,Wunderground v.1.15,2013-11-11 07:29:00,
2013-11-11 02:30:00,43.2,29.4,30.23,ENE,72,0.0,0.0,58,0.00,,,0.00,Wunderground v.1.15,2013-11-11 07:30:00,
2013-11-11 02:31:00,43.2,29.4,30.23,ENE,72,0.0,0.0,58,0.00,,,0.00,Wunderground v.1.15,2013-11-11 07:31:00,
2013-11-11 02:34:00,43.1,29.3,30.23,ENE,72,0.0,1.0,58,0.00,,,0.00,Wunderground v.1.15,2013-11-11 07:34:00,
2013-11-11 02:35:00,43.0,29.2,30.23,ENE,72,0.0,1.0,58,0.00,,,0.00,Wunderground v.1.15,2013-11-11 07:35:00,
2013-11-11 02:36:00,42.9,29.1,30.23,ENE,72,0.0,1.0,58,0.00,,,0.00,Wunderground v.1.15,2013-11-11 07:36:00,
2013-11-11 02:37:00,42.9,29.1,30.23,ENE,72,0.0,1.0,58,0.00,,,0.00,Wunderground v.1.15,2013-11-11 07:37:00,
2013-11-11 02:39:00,42.9,29.1,30.23,ENE,72,0.0,1.0,58,0.00,,,0.00,Wunderground v.1.15,2013-11-11 07:39:00,
2013-11-11 02:41:00,42.8,29.0,30.23,ENE,72,0.0,1.0,58,0.00,,,0.00,Wunderground v.1.15,2013-11-11 07:41:00,
2013-11-11 02:42:00,42.8,29.0,30.23,ENE,72,0.0,1.0,58,0.00,,,0.00,Wunderground v.1.15,2013-11-11 07:42:00,
2013-11-11 02:43:00,42.7,29.4,30.23,ENE,72,0.0,1.0,59,0.00,,,0.00,Wunderground v.1.15,2013-11-11 07:43:00,
2013-11-11 02:44:00,42.7,29.4,30.23,ENE,72,0.0,1.0,59,0.00,,,0.00,Wunderground v.1.15,2013-11-11 07:44:00,
2013-11-11 02:46:00,42.6,29.3,30.23,ENE,72,0.0,1.0,59,0.00,,,0.00,Wunderground v.1.15,2013-11-11 07:46:00,
2013-11-11 02:47:00,42.6,29.7,30.23,ENE,72,0.0,1.0,60,0.00,,,0.00,Wunderground v.1.15,2013-11-11 07:47:00,
2013-11-11 02:48:00,42.5,29.6,30.23,ENE,72,0.0,1.0,60,0.00,,,0.00,Wunderground v.1.15,2013-11-11 07:48:00,
2013-11-11 02:49:00,42.5,29.6,30.23,ENE,72,0.0,1.0,60,0.00,,,0.00,Wunderground v.1.15,2013-11-11 07:49:00,
2013-11-11 02:51:00,42.5,29.6,30.24,ENE,72,0.0,0.0,60,0.00,,,0.00,Wunderground v.1.15,2013-11-11 07:51:00,
2013-11-11 02:52:00,42.4,29.5,30.23,ENE,72,0.0,0.0,60,0.00,,,0.00,Wunderground v.1.15,2013-11-11 07:52:00,
2013-11-11 02:54:00,42.4,29.5,30.24,ENE,72,0.0,1.0,60,0.00,,,0.00,Wunderground v.1.15,2013-11-11 07:54:00,
2013-11-11 02:57:00,42.2,28.9,30.24,ENE,72,0.0,1.0,59,0.00,,,0.00,Wunderground v.1.15,2013-11-11 07:57:00,
2013-11-11 02:58:00,42.2,28.9,30.24,ENE,72,0.0,1.0,59,0.00,,,0.00,Wunderground v.1.15,2013-11-11 07:58:00,
2013-11-11 02:59:00,42.2,28.9,30.24,ENE,72,0.0,1.0,59,0.00,,,0.00,Wunderground v.1.15,2013-11-11 07:59:00,
2013-11-11 03:00:00,42.2,28.9,30.24,ENE,72,0.0,0.0,59,0.00,,,0.00,Wunderground v.1.15,2013-11-11 08:00:00,
2013-11-11 03:02:00,42.1,28.8,30.24,ENE,72,0.0,0.0,59,0.00,,,0.00,Wunderground v.1.15,2013-11-11 08:02:00,
2013-11-11 03:03:00,42.1,28.8,30.24,ENE,72,0.0,0.0,59,0.00,,,0.00,Wunderground v.1.15,2013-11-11 08:03:00,
2013-11-11 03:04:00,42.0,28.7,30.24,ENE,72,0.0,0.0,59,0.00,,,0.00,Wunderground v.1.15,2013-11-11 08:04:00,
2013-11-11 03:05:00,42.0,29.1,30.24,ENE,72,0.0,0.0,60,0.00,,,0.00,Wunderground v.1.15,2013-11-11 08:05:00,
2013-11-11 03:06:00,42.0,29.1,30.24,ENE,72,0.0,0.0,60,0.00,,,0.00,Wunderground v.1.15,2013-11-11 08:06:00,
2013-11-11 03:07:00,42.0,29.1,30.24,ENE,72,0.0,0.0,60,0.00,,,0.00,Wunderground v.1.15,2013-11-11 08:07:00,
2013-11-11 03:08:00,42.0,29.1,30.24,ENE,72,0.0,0.0,60,0.00,,,0.00,Wunderground v.1.15,2013-11-11 08:08:00,
2013-11-11 03:09:00,41.9,29.0,30.24,ENE,72,0.0,1.0,60,0.00,,,0.00,Wunderground v.1.15,2013-11-11 08:09:00,
2013-11-11 03:11:00,41.9,29.0,30.24,ENE,72,0.0,1.0,60,0.00,,,0.00,Wunderground v.1.15,2013-11-11 08:11:00,
2013-11-11 03:12:00,41.9,29.0,30.24,ENE,72,0.0,2.0,60,0.00,,,0.00,Wunderground v.1.15,2013-11-11 08:12:00,
2013-11-11 03:13:00,41.9,29.0,30.24,ENE,72,0.0,2.0,60,0.00,,,0.00,Wunderground v.1.15,2013-11-11 08:13:00,
2013-11-11 03:15:00,42.0,29.1,30.24,ENE,72,0.0,2.0,60,0.00,,,0.00,Wunderground v.1.15,2013-11-11 08:15:00,
2013-11-11 03:16:00,41.9,29.0,30.24,ENE,72,0.0,2.0,60,0.00,,,0.00,Wunderground v.1.15,2013-11-11 08:16:00,
2013-11-11 03:17:00,42.0,29.5,30.24,ENE,72,0.0,2.0,61,0.00,,,0.00,Wunderground v.1.15,2013-11-11 08:17:00,
2013-11-11 03:18:00,41.9,29.4,30.24,ENE,72,0.0,2.0,61,0.00,,,0.00,Wunderground v.1.15,2013-11-11 08:18:00,
2013-11-11 03:21:00,41.9,29.0,30.24,ENE,72,0.0,0.0,60,0.00,,,0.00,Wunderground v.1.15,2013-11-11 08:21:00,
2013-11-11 03:22:00,41.8,29.3,30.24,ENE,72,0.0,0.0,61,0.00,,,0.00,Wunderground v.1.15,2013-11-11 08:22:00,
2013-11-11 03:23:00,41.8,28.9,30.24,ENE,72,0.0,0.0,60,0.00,,,0.00,Wunderground v.1.15,2013-11-11 08:23:00,
2013-11-11 03:24:00,41.8,29.3,30.24,ENE,72,0.0,0.0,61,0.00,,,0.00,Wunderground v.1.15,2013-11-11 08:24:00,
2013-11-11 03:26:00,41.7,29.2,30.24,ENE,72,0.0,0.0,61,0.00,,,0.00,Wunderground v.1.15,2013-11-11 08:26:00,
2013-11-11 03:27:00,41.7,29.2,30.24,ENE,72,0.0,0.0,61,0.00,,,0.00,Wunderground v.1.15,2013-11-11 08:27:00,
2013-11-11 03:28:00,41.6,29.1,30.24,ENE,72,0.0,0.0,61,0.00,,,0.00,Wunderground v.1.15,2013-11-11 08:28:00,
2013-11-11 03:29:00,41.6,29.1,30.24,ENE,72,0.0,0.0,61,0.00,,,0.00,Wunderground v.1.15,2013-11-11 08:29:00,
2013-11-11 03:31:00,41.4,29.7,30.25,ENE,72,0.0,0.0,63,0.00,,,0.00,Wunderground v.1.15,2013-11-11 08:31:00,
2013-11-11 03:32:00,41.3,29.6,30.24,ENE,72,0.0,0.0,63,0.00,,,0.00,Wunderground v.1.15,2013-11-11 08:32:00,
2013-11-11 03:33:00,41.3,29.6,30.24,ENE,72,0.0,0.0,63,0.00,,,0.00,Wunderground v.1.15,2013-11-11 08:33:00,
2013-11-11 03:35:00,41.0,30.9,30.24,ENE,72,0.0,0.0,67,0.00,,,0.00,Wunderground v.1.15,2013-11-11 08:35:00,
2013-11-11 03:36:00,40.8,29.6,30.24,ENE,72,0.0,0.0,64,0.00,,,0.00,Wunderground v.1.15,2013-11-11 08:36:00,
2013-11-11 03:38:00,40.6,29.4,30.24,ENE,72,0.0,1.0,64,0.00,,,0.00,Wunderground v.1.15,2013-11-11 08:38:00,
2013-11-11 03:39:00,40.4,29.6,30.24,ENE,72,0.0,1.0,65,0.00,,,0.00,Wunderground v.1.15,2013-11-11 08:39:00,
2013-11-11 03:40:00,40.2,29.4,30.24,ENE,72,0.0,0.0,65,0.00,,,0.00,Wunderground v.1.15,2013-11-11 08:40:00,
2013-11-11 03:42:00,40.1,29.3,30.24,ENE,72,0.0,0.0,65,0.00,,,0.00,Wunderground v.1.15,2013-11-11 08:42:00,
2013-11-11 03:43:00,40.0,29.2,30.24,ENE,72,0.0,0.0,65,0.00,,,0.00,Wunderground v.1.15,2013-11-11 08:43:00,
2013-11-11 03:44:00,39.8,29.4,30.24,ENE,72,0.0,0.0,66,0.00,,,0.00,Wunderground v.1.15,2013-11-11 08:44:00,
2013-11-11 03:45:00,39.7,29.3,30.24,ENE,72,0.0,0.0,66,0.00,,,0.00,Wunderground v.1.15,2013-11-11 08:45:00,
2013-11-11 03:47:00,39.5,29.1,30.24,ENE,72,0.0,0.0,66,0.00,,,0.00,Wunderground v.1.15,2013-11-11 08:47:00,
2013-11-11 03:48:00,39.4,29.3,30.24,ENE,72,0.0,0.0,67,0.00,,,0.00,Wunderground v.1.15,2013-11-11 08:48:00,
2013-11-11 03:49:00,39.3,29.6,30.24,ENE,72,0.0,0.0,68,0.00,,,0.00,Wunderground v.1.15,2013-11-11 08:49:00,
2013-11-11 03:51:00,39.1,29.4,30.24,ENE,72,0.0,0.0,68,0.00,,,0.00,Wunderground v.1.15,2013-11-11 08:51:00,
2013-11-11 03:52:00,38.9,29.2,30.24,ENE,72,0.0,0.0,68,0.00,,,0.00,Wunderground v.1.15,2013-11-11 08:52:00,
2013-11-11 03:53:00,38.8,29.1,30.24,ENE,72,0.0,0.0,68,0.00,,,0.00,Wunderground v.1.15,2013-11-11 08:53:00,
2013-11-11 03:54:00,38.6,28.9,30.24,ENE,72,0.0,0.0,68,0.00,,,0.00,Wunderground v.1.15,2013-11-11 08:54:00,
2013-11-11 03:56:00,38.4,28.8,30.24,ENE,72,0.0,0.0,68,0.00,,,0.00,Wunderground v.1.15,2013-11-11 08:56:00,
2013-11-11 03:58:00,38.2,28.6,30.24,ENE,72,0.0,0.0,68,0.00,,,0.00,Wunderground v.1.15,2013-11-11 08:58:00,
2013-11-11 03:59:00,38.1,28.8,30.24,ENE,72,0.0,0.0,69,0.00,,,0.00,Wunderground v.1.15,2013-11-11 08:59:00,
2013-11-11 04:00:00,38.0,28.7,30.24,ENE,72,0.0,1.0,69,0.00,,,0.00,Wunderground v.1.15,2013-11-11 09:00:00,
2013-11-11 04:01:00,37.9,29.0,30.24,ENE,72,0.0,1.0,70,0.00,,,0.00,Wunderground v.1.15,2013-11-11 09:01:00,
2013-11-11 04:04:00,37.7,29.1,30.24,ENE,72,0.0,1.0,71,0.00,,,0.00,Wunderground v.1.15,2013-11-11 09:04:00,
2013-11-11 04:05:00,37.7,29.1,30.24,ENE,72,0.0,1.0,71,0.00,,,0.00,Wunderground v.1.15,2013-11-11 09:05:00,
2013-11-11 04:06:00,37.5,29.3,30.24,ENE,72,0.0,1.0,72,0.00,,,0.00,Wunderground v.1.15,2013-11-11 09:06:00,
2013-11-11 04:09:00,37.3,28.8,30.25,ENE,72,0.0,1.0,71,0.00,,,0.00,Wunderground v.1.15,2013-11-11 09:09:00,
2013-11-11 04:10:00,37.3,28.8,30.24,ENE,72,0.0,0.0,71,0.00,,,0.00,Wunderground v.1.15,2013-11-11 09:10:00,
2013-11-11 04:12:00,37.1,28.6,30.24,ENE,72,0.0,0.0,71,0.00,,,0.00,Wunderground v.1.15,2013-11-11 09:12:00,
2013-11-11 04:13:00,37.1,28.6,30.24,ENE,72,0.0,0.0,71,0.00,,,0.00,Wunderground v.1.15,2013-11-11 09:13:00,
2013-11-11 04:15:00,37.0,28.5,30.24,ENE,72,0.0,1.0,71,0.00,,,0.00,Wunderground v.1.15,2013-11-11 09:15:00,
2013-11-11 04:16:00,36.9,28.7,30.24,ENE,72,0.0,1.0,72,0.00,,,0.00,Wunderground v.1.15,2013-11-11 09:16:00,
2013-11-11 04:18:00,36.8,28.6,30.24,ENE,72,0.0,1.0,72,0.00,,,0.00,Wunderground v.1.15,2013-11-11 09:18:00,
2013-11-11 04:20:00,36.6,28.8,30.24,ENE,72,0.0,0.0,73,0.00,,,0.00,Wunderground v.1.15,2013-11-11 09:20:00,
2013-11-11 04:21:00,36.6,28.8,30.25,ENE,72,0.0,0.0,73,0.00,,,0.00,Wunderground v.1.15,2013-11-11 09:21:00,
2013-11-11 04:23:00,36.4,29.2,30.25,ENE,72,0.0,1.0,75,0.00,,,0.00,Wunderground v.1.15,2013-11-11 09:23:00,
2013-11-11 04:25:00,36.2,29.0,30.25,ENE,72,0.0,1.0,75,0.00,,,0.00,Wunderground v.1.15,2013-11-11 09:25:00,
2013-11-11 04:26:00,36.2,29.0,30.25,ENE,72,0.0,1.0,75,0.00,,,0.00,Wunderground v.1.15,2013-11-11 09:26:00,
2013-11-11 04:27:00,36.0,29.2,30.25,ENE,72,0.0,1.0,76,0.00,,,0.00,Wunderground v.1.15,2013-11-11 09:27:00,
2013-11-11 04:29:00,35.9,29.1,30.25,ENE,72,0.0,1.0,76,0.00,,,0.00,Wunderground v.1.15,2013-11-11 09:29:00,
2013-11-11 04:30:00,35.8,29.0,30.25,ENE,72,3.0,3.0,76,0.00,,,0.00,Wunderground v.1.15,2013-11-11 09:30:00,
2013-11-11 04:31:00,35.7,28.9,30.25,ENE,72,1.0,3.0,76,0.00,,,0.00,Wunderground v.1.15,2013-11-11 09:31:00,
2013-11-11 04:32:00,35.7,28.9,30.25,ENE,72,0.0,3.0,76,0.00,,,0.00,Wunderground v.1.15,2013-11-11 09:32:00,
2013-11-11 04:33:00,35.7,28.9,30.25,ENE,72,0.0,3.0,76,0.00,,,0.00,Wunderground v.1.15,2013-11-11 09:33:00,
2013-11-11 04:34:00,35.7,28.9,30.25,ENE,72,1.0,3.0,76,0.00,,,0.00,Wunderground v.1.15,2013-11-11 09:34:00,
2013-11-11 04:36:00,35.7,28.9,30.25,ENE,72,0.0,3.0,76,0.00,,,0.00,Wunderground v.1.15,2013-11-11 09:36:00,
2013-11-11 04:37:00,35.7,28.9,30.25,ENE,72,0.0,3.0,76,0.00,,,0.00,Wunderground v.1.15,2013-11-11 09:37:00,
2013-11-11 04:38:00,35.6,29.1,30.25,ENE,72,0.0,3.0,77,0.00,,,0.00,Wunderground v.1.15,2013-11-11 09:38:00,
2013-11-11 04:40:00,35.6,29.1,30.25,ENE,72,0.0,0.0,77,0.00,,,0.00,Wunderground v.1.15,2013-11-11 09:40:00,
2013-11-11 04:41:00,35.5,29.0,30.25,ENE,72,0.0,1.0,77,0.00,,,0.00,Wunderground v.1.15,2013-11-11 09:41:00,
2013-11-11 04:42:00,35.5,29.3,30.25,ENE,72,1.0,1.0,78,0.00,,,0.00,Wunderground v.1.15,2013-11-11 09:42:00,
2013-11-11 04:44:00,35.3,29.1,30.25,ENE,72,0.0,1.0,78,0.00,,,0.00,Wunderground v.1.15,2013-11-11 09:44:00,
2013-11-11 04:45:00,35.1,28.9,30.25,ENE,72,0.0,1.0,78,0.00,,,0.00,Wunderground v.1.15,2013-11-11 09:45:00,
2013-11-11 04:46:00,35.1,28.9,30.25,ENE,72,0.0,1.0,78,0.00,,,0.00,Wunderground v.1.15,2013-11-11 09:46:00,
2013-11-11 04:47:00,35.0,28.8,30.25,ENE,72,0.0,1.0,78,0.00,,,0.00,Wunderground v.1.15,2013-11-11 09:47:00,
2013-11-11 04:49:00,34.8,28.6,30.25,ENE,72,0.0,1.0,78,0.00,,,0.00,Wunderground v.1.15,2013-11-11 09:49:00,
2013-11-11 04:50:00,34.5,28.7,30.25,ENE,72,0.0,0.0,79,0.00,,,0.00,Wunderground v.1.15,2013-11-11 09:50:00,
2013-11-11 04:52:00,34.4,28.6,30.25,ENE,72,0.0,1.0,79,0.00,,,0.00,Wunderground v.1.15,2013-11-11 09:52:00,
2013-11-11 04:53:00,34.4,28.6,30.25,ENE,72,0.0,1.0,79,0.00,,,0.00,Wunderground v.1.15,2013-11-11 09:53:00,
2013-11-11 04:54:00,34.4,28.6,30.25,ENE,72,0.0,1.0,79,0.00,,,0.00,Wunderground v.1.15,2013-11-11 09:54:00,
2013-11-11 04:57:00,34.2,28.7,30.25,ENE,72,0.0,1.0,80,0.00,,,0.00,Wunderground v.1.15,2013-11-11 09:57:00,
2013-11-11 04:58:00,34.1,28.6,30.25,ENE,72,0.0,1.0,80,0.00,,,0.00,Wunderground v.1.15,2013-11-11 09:58:00,
2013-11-11 04:59:00,34.1,28.6,30.25,ENE,72,0.0,1.0,80,0.00,,,0.00,Wunderground v.1.15,2013-11-11 09:59:00,
2013-11-11 05:02:00,33.9,28.4,30.25,ENE,72,0.0,2.0,80,0.00,,,0.00,Wunderground v.1.15,2013-11-11 10:02:00,
2013-11-11 05:03:00,33.9,28.7,30.25,ENE,72,0.0,2.0,81,0.00,,,0.00,Wunderground v.1.15,2013-11-11 10:03:00,
2013-11-11 05:04:00,33.9,28.7,30.25,ENE,72,0.0,2.0,81,0.00,,,0.00,Wunderground v.1.15,2013-11-11 10:04:00,
2013-11-11 05:07:00,33.9,28.7,30.25,ENE,72,0.0,2.0,81,0.00,,,0.00,Wunderground v.1.15,2013-11-11 10:07:00,
2013-11-11 05:08:00,34.0,28.8,30.25,ENE,72,0.0,2.0,81,0.00,,,0.00,Wunderground v.1.15,2013-11-11 10:08:00,
2013-11-11 05:10:00,34.1,28.6,30.25,ENE,72,0.0,0.0,80,0.00,,,0.00,Wunderground v.1.15,2013-11-11 10:10:00,
2013-11-11 05:13:00,34.4,28.9,30.25,ENE,72,0.0,3.0,80,0.00,,,0.00,Wunderground v.1.15,2013-11-11 10:13:00,
2013-11-11 05:15:00,34.4,28.6,30.25,ENE,72,1.0,3.0,79,0.00,,,0.00,Wunderground v.1.15,2013-11-11 10:15:00,
2013-11-11 05:18:00,34.9,29.0,30.25,ENE,72,0.0,3.0,79,0.00,,,0.00,Wunderground v.1.15,2013-11-11 10:18:00,
2013-11-11 05:19:00,35.0,29.1,30.25,ENE,72,0.0,3.0,79,0.00,,,0.00,Wunderground v.1.15,2013-11-11 10:19:00,
2013-11-11 05:20:00,35.2,29.0,30.25,ENE,72,0.0,2.0,78,0.00,,,0.00,Wunderground v.1.15,2013-11-11 10:20:00,
2013-11-11 05:23:00,35.3,29.1,30.25,ENE,72,0.0,2.0,78,0.00,,,0.00,Wunderground v.1.15,2013-11-11 10:23:00,
2013-11-11 05:24:00,35.3,29.1,30.25,ENE,72,0.0,2.0,78,0.00,,,0.00,Wunderground v.1.15,2013-11-11 10:24:00,
2013-11-11 05:26:00,35.3,29.1,30.25,ENE,72,1.0,2.0,78,0.00,,,0.00,Wunderground v.1.15,2013-11-11 10:26:00,
2013-11-11 05:28:00,35.2,29.0,30.25,ENE,72,0.0,2.0,78,0.00,,,0.00,Wunderground v.1.15,2013-11-11 10:28:00,
2013-11-11 05:29:00,35.2,29.0,30.25,ENE,72,0.0,2.0,78,0.00,,,0.00,Wunderground v.1.15,2013-11-11 10:29:00,
2013-11-11 05:30:00,35.2,29.0,30.25,ENE,72,1.0,1.0,78,0.00,,,0.00,Wunderground v.1.15,2013-11-11 10:30:00,
2013-11-11 05:31:00,35.1,28.9,30.25,ENE,72,0.0,1.0,78,0.00,,,0.00,Wunderground v.1.15,2013-11-11 10:31:00,
2013-11-11 05:33:00,35.0,29.1,30.25,ENE,72,1.0,3.0,79,0.00,,,0.00,Wunderground v.1.15,2013-11-11 10:33:00,
2013-11-11 05:34:00,35.0,29.1,30.25,ENE,72,0.0,3.0,79,0.00,,,0.00,Wunderground v.1.15,2013-11-11 10:34:00,
2013-11-11 05:35:00,35.0,29.1,30.25,ENE,72,0.0,3.0,79,0.00,,,0.00,Wunderground v.1.15,2013-11-11 10:35:00,
2013-11-11 05:36:00,34.9,29.0,30.25,ENE,72,0.0,3.0,79,0.00,,,0.00,Wunderground v.1.15,2013-11-11 10:36:00,
2013-11-11 05:39:00,35.0,28.8,30.25,ENE,72,1.0,3.0,78,0.00,,,0.00,Wunderground v.1.15,2013-11-11 10:39:00,
2013-11-11 05:40:00,35.1,28.9,30.25,ENE,72,0.0,1.0,78,0.00,,,0.00,Wunderground v.1.15,2013-11-11 10:40:00,
2013-11-11 05:41:00,35.2,29.0,30.25,ENE,72,1.0,1.0,78,0.00,,,0.00,Wunderground v.1.15,2013-11-11 10:41:00,
2013-11-11 05:44:00,35.3,29.1,30.25,ENE,72,0.0,1.0,78,0.00,,,0.00,Wunderground v.1.15,2013-11-11 10:44:00,
2013-11-11 05:45:00,35.4,29.2,30.25,ENE,72,0.0,1.0,78,0.00,,,0.00,Wunderground v.1.15,2013-11-11 10:45:00,
2013-11-11 05:46:00,35.4,29.2,30.25,ENE,72,0.0,1.0,78,0.00,,,0.00,Wunderground v.1.15,2013-11-11 10:46:00,
2013-11-11 05:49:00,35.5,29.3,30.25,ENE,72,0.0,1.0,78,0.00,,,0.00,Wunderground v.1.15,2013-11-11 10:49:00,
2013-11-11 05:51:00,35.4,29.2,30.25,ENE,72,0.0,0.0,78,0.00,,,0.00,Wunderground v.1.15,2013-11-11 10:51:00,
2013-11-11 05:52:00,35.4,29.2,30.25,ENE,72,0.0,0.0,78,0.00,,,0.00,Wunderground v.1.15,2013-11-11 10:52:00,
2013-11-11 05:54:00,35.3,29.4,30.25,ENE,72,0.0,1.0,79,0.00,,,0.00,Wunderground v.1.15,2013-11-11 10:54:00,
2013-11-11 05:56:00,35.1,29.2,30.25,ENE,72,0.0,1.0,79,0.00,,,0.00,Wunderground v.1.15,2013-11-11 10:56:00,
2013-11-11 05:57:00,35.0,29.1,30.25,ENE,72,0.0,1.0,79,0.00,,,0.00,Wunderground v.1.15,2013-11-11 10:57:00,
2013-11-11 05:58:00,34.9,28.7,30.25,ENE,72,0.0,1.0,78,0.00,,,0.00,Wunderground v.1.15,2013-11-11 10:58:00,
2013-11-11 05:59:00,34.7,28.9,30.25,ENE,72,0.0,1.0,79,0.00,,,0.00,Wunderground v.1.15,2013-11-11 10:59:00,
2013-11-11 06:01:00,34.4,28.6,30.25,ENE,72,0.0,0.0,79,0.00,,,0.00,Wunderground v.1.15,2013-11-11 11:01:00,
2013-11-11 06:02:00,34.4,28.6,30.25,ENE,72,0.0,0.0,79,0.00,,,0.00,Wunderground v.1.15,2013-11-11 11:02:00,
2013-11-11 06:04:00,34.3,28.5,30.25,ENE,72,1.0,1.0,79,0.00,,,0.00,Wunderground v.1.15,2013-11-11 11:04:00,
2013-11-11 06:07:00,33.9,28.4,30.25,ENE,72,0.0,1.0,80,0.00,,,0.00,Wunderground v.1.15,2013-11-11 11:07:00,
2013-11-11 06:08:00,33.8,28.3,30.25,ENE,72,0.0,2.0,80,0.00,,,0.00,Wunderground v.1.15,2013-11-11 11:08:00,
2013-11-11 06:09:00,33.7,28.5,30.25,ENE,72,0.0,2.0,81,0.00,,,0.00,Wunderground v.1.15,2013-11-11 11:09:00,
2013-11-11 06:10:00,33.7,28.5,30.25,ENE,72,0.0,0.0,81,0.00,,,0.00,Wunderground v.1.15,2013-11-11 11:10:00,
2013-11-11 06:12:00,33.5,28.6,30.25,ENE,72,0.0,2.0,82,0.00,,,0.00,Wunderground v.1.15,2013-11-11 11:12:00,
2013-11-11 06:13:00,33.5,28.6,30.25,ENE,72,0.0,2.0,82,0.00,,,0.00,Wunderground v.1.15,2013-11-11 11:13:00,
2013-11-11 06:14:00,33.5,28.6,30.25,ENE,72,0.0,2.0,82,0.00,,,0.00,Wunderground v.1.15,2013-11-11 11:14:00,
2013-11-11 06:15:00,33.5,28.6,30.25,ENE,72,0.0,2.0,82,0.00,,,0.00,Wunderground v.1.15,2013-11-11 11:15:00,
2013-11-11 06:16:00,33.4,28.5,30.25,ENE,72,0.0,2.0,82,0.00,,,0.00,Wunderground v.1.15,2013-11-11 11:16:00,
2013-11-11 06:17:00,33.4,28.5,30.25,ENE,72,0.0,2.0,82,0.00,,,0.00,Wunderground v.1.15,2013-11-11 11:17:00,
2013-11-11 06:18:00,33.4,28.5,30.25,ENE,72,0.0,2.0,82,0.00,,,0.00,Wunderground v.1.15,2013-11-11 11:18:00,
2013-11-11 06:19:00,33.3,28.4,30.25,ENE,72,0.0,0.0,82,0.00,,,0.00,Wunderground v.1.15,2013-11-11 11:19:00,
2013-11-11 06:20:00,33.3,28.4,30.25,ENE,72,0.0,0.0,82,0.00,,,0.00,Wunderground v.1.15,2013-11-11 11:20:00,
2013-11-11 06:21:00,33.2,28.3,30.25,ENE,72,0.0,0.0,82,0.00,,,0.00,Wunderground v.1.15,2013-11-11 11:21:00,
2013-11-11 06:22:00,33.2,28.3,30.25,ENE,72,0.0,0.0,82,0.00,,,0.00,Wunderground v.1.15,2013-11-11 11:22:00,
2013-11-11 06:23:00,33.2,28.6,30.25,ENE,72,1.0,1.0,83,0.00,,,0.00,Wunderground v.1.15,2013-11-11 11:23:00,
2013-11-11 06:24:00,33.1,28.5,30.25,ENE,72,0.0,2.0,83,0.00,,,0.00,Wunderground v.1.15,2013-11-11 11:24:00,
2013-11-11 06:26:00,33.0,28.4,30.25,ENE,72,1.0,2.0,83,0.00,,,0.00,Wunderground v.1.15,2013-11-11 11:26:00,
2013-11-11 06:27:00,33.0,28.4,30.25,ENE,72,3.0,3.0,83,0.00,,,0.00,Wunderground v.1.15,2013-11-11 11:27:00,
2013-11-11 06:28:00,33.0,28.4,30.25,ENE,72,0.0,3.0,83,0.00,,,0.00,Wunderground v.1.15,2013-11-11 11:28:00,
2013-11-11 06:31:00,33.1,28.5,30.25,ENE,72,1.0,1.0,83,0.00,,,0.00,Wunderground v.1.15,2013-11-11 11:31:00,
2013-11-11 06:32:00,33.0,28.4,30.25,ENE,72,0.0,1.0,83,0.00,,,0.00,Wunderground v.1.15,2013-11-11 11:32:00,
2013-11-11 06:34:00,32.9,28.3,30.25,ENE,72,0.0,1.0,83,0.00,,,0.00,Wunderground v.1.15,2013-11-11 11:34:00,
2013-11-11 06:36:00,32.8,28.2,30.25,ENE,72,0.0,1.0,83,0.00,,,0.00,Wunderground v.1.15,2013-11-11 11:36:00,
2013-11-11 06:37:00,32.7,28.1,30.25,ENE,72,0.0,1.0,83,0.00,,,0.00,Wunderground v.1.15,2013-11-11 11:37:00,
2013-11-11 06:38:00,32.6,28.0,30.25,ENE,72,0.0,1.0,83,0.00,,,0.00,Wunderground v.1.15,2013-11-11 11:38:00,
2013-11-11 06:39:00,32.5,28.2,30.25,ENE,72,0.0,1.0,84,0.00,,,0.00,Wunderground v.1.15,2013-11-11 11:39:00,
2013-11-11 06:41:00,32.4,28.1,30.25,ENE,72,0.0,0.0,84,0.00,,,0.00,Wunderground v.1.15,2013-11-11 11:41:00,
2013-11-11 06:42:00,32.3,28.0,30.26,ENE,72,0.0,0.0,84,0.00,,,0.00,Wunderground v.1.15,2013-11-11 11:42:00,
2013-11-11 06:43:00,32.3,28.0,30.26,ENE,72,0.0,0.0,84,0.00,,,0.00,Wunderground v.1.15,2013-11-11 11:43:00,
2013-11-11 06:44:00,32.2,27.9,30.26,ENE,72,0.0,0.0,84,0.00,,,0.00,Wunderground v.1.15,2013-11-11 11:44:00,
2013-11-11 06:45:00,32.1,27.8,30.26,ENE,72,0.0,0.0,84,0.00,,,0.00,Wunderground v.1.15,2013-11-11 11:45:00,
2013-11-11 06:46:00,32.0,27.7,30.26,ENE,72,0.0,0.0,84,0.00,,,0.00,Wunderground v.1.15,2013-11-11 11:46:00,
2013-11-11 06:47:00,32.0,28.0,30.26,ENE,72,0.0,0.0,85,0.00,,,0.00,Wunderground v.1.15,2013-11-11 11:47:00,
2013-11-11 06:49:00,31.9,27.9,30.26,ENE,72,0.0,0.0,85,0.00,,,0.00,Wunderground v.1.15,2013-11-11 11:49:00,
2013-11-11 06:50:00,31.8,27.8,30.26,ENE,72,0.0,0.0,85,0.00,,,0.00,Wunderground v.1.15,2013-11-11 11:50:00,
2013-11-11 06:51:00,31.7,27.7,30.26,ENE,72,0.0,0.0,85,0.00,,,0.00,Wunderground v.1.15,2013-11-11 11:51:00,
2013-11-11 06:52:00,31.7,27.7,30.26,ENE,72,0.0,0.0,85,0.00,,,0.00,Wunderground v.1.15,2013-11-11 11:52:00,
2013-11-11 06:53:00,31.6,27.6,30.26,ENE,72,0.0,0.0,85,0.00,,,0.00,Wunderground v.1.15,2013-11-11 11:53:00,
2013-11-11 06:54:00,31.5,27.5,30.26,ENE,72,0.0,0.0,85,0.00,,,0.00,Wunderground v.1.15,2013-11-11 11:54:00,
2013-11-11 06:56:00,31.4,27.4,30.26,ENE,72,0.0,0.0,85,0.00,,,0.00,Wunderground v.1.15,2013-11-11 11:56:00,
2013-11-11 06:57:00,31.4,27.4,30.26,ENE,72,0.0,0.0,85,0.00,,,0.00,Wunderground v.1.15,2013-11-11 11:57:00,
2013-11-11 06:58:00,31.4,27.4,30.26,ENE,72,1.0,1.0,85,0.00,,,0.00,Wunderground v.1.15,2013-11-11 11:58:00,
2013-11-11 06:59:00,31.3,27.6,30.26,ENE,72,0.0,1.0,86,0.00,,,0.00,Wunderground v.1.15,2013-11-11 11:59:00,
2013-11-11 07:01:00,31.2,27.5,30.26,ENE,72,0.0,0.0,86,0.00,,,0.00,Wunderground v.1.15,2013-11-11 12:01:00,
2013-11-11 07:02:00,31.2,27.5,30.26,ENE,72,0.0,1.0,86,0.00,,,0.00,Wunderground v.1.15,2013-11-11 12:02:00,
2013-11-11 07:03:00,31.2,27.8,30.26,ENE,72,0.0,3.0,87,0.00,,,0.00,Wunderground v.1.15,2013-11-11 12:03:00,
2013-11-11 07:05:00,31.1,27.7,30.26,ENE,72,0.0,3.0,87,0.00,,,0.00,Wunderground v.1.15,2013-11-11 12:05:00,
2013-11-11 07:06:00,31.1,27.7,30.26,ENE,72,1.0,3.0,87,0.00,,,0.00,Wunderground v.1.15,2013-11-11 12:06:00,
2013-11-11 07:07:00,31.1,27.7,30.25,ENE,71,2.0,6.0,87,0.00,,,0.00,Wunderground v.1.15,2013-11-11 12:07:00,
2013-11-11 07:09:00,31.1,28.0,30.26,ENE,71,1.0,6.0,88,0.00,,,0.00,Wunderground v.1.15,2013-11-11 12:09:00,
2013-11-11 07:10:00,31.2,28.1,30.26,ENE,71,1.0,1.0,88,0.00,,,0.00,Wunderground v.1.15,2013-11-11 12:10:00,
2013-11-11 07:11:00,31.2,28.1,30.26,ENE,71,0.0,2.0,88,0.00,,,0.00,Wunderground v.1.15,2013-11-11 12:11:00,
2013-11-11 07:12:00,31.2,28.1,30.26,ENE,71,0.0,2.0,88,0.00,,,0.00,Wunderground v.1.15,2013-11-11 12:12:00,
2013-11-11 07:14:00,31.2,28.1,30.26,ENE,71,1.0,2.0,88,0.00,,,0.00,Wunderground v.1.15,2013-11-11 12:14:00,
2013-11-11 07:15:00,31.2,28.1,30.26,ENE,71,1.0,2.0,88,0.00,,,0.00,Wunderground v.1.15,2013-11-11 12:15:00,
2013-11-11 07:16:00,31.2,28.1,30.26,ENE,71,0.0,2.0,88,0.00,,,0.00,Wunderground v.1.15,2013-11-11 12:16:00,
2013-11-11 07:18:00,31.2,28.1,30.26,ENE,71,0.0,2.0,88,0.00,,,0.00,Wunderground v.1.15,2013-11-11 12:18:00,
2013-11-11 07:19:00,31.2,28.1,30.26,ENE,71,0.0,2.0,88,0.00,,,0.00,Wunderground v.1.15,2013-11-11 12:19:00,
2013-11-11 07:20:00,31.2,28.1,30.26,ENE,71,0.0,0.0,88,0.00,,,0.00,Wunderground v.1.15,2013-11-11 12:20:00,
2013-11-11 07:21:00,31.2,28.1,30.27,ENE,71,0.0,0.0,88,0.00,,,0.00,Wunderground v.1.15,2013-11-11 12:21:00,
2013-11-11 07:23:00,31.2,28.3,30.27,ENE,71,0.0,1.0,89,0.00,,,0.00,Wunderground v.1.15,2013-11-11 12:23:00,
2013-11-11 07:26:00,31.1,28.2,30.27,ENE,71,0.0,1.0,89,0.00,,,0.00,Wunderground v.1.15,2013-11-11 12:26:00,
2013-11-11 07:27:00,31.1,28.2,30.27,ENE,71,0.0,1.0,89,0.00,,,0.00,Wunderground v.1.15,2013-11-11 12:27:00,
2013-11-11 07:29:00,31.1,28.2,30.27,ENE,71,0.0,1.0,89,0.00,,,0.00,Wunderground v.1.15,2013-11-11 12:29:00,
2013-11-11 07:31:00,31.1,28.0,30.27,ENE,71,0.0,1.0,88,0.00,,,0.00,Wunderground v.1.15,2013-11-11 12:31:00,
2013-11-11 07:32:00,31.1,28.2,30.27,ENE,71,0.0,1.0,89,0.00,,,0.00,Wunderground v.1.15,2013-11-11 12:32:00,
2013-11-11 07:34:00,31.0,28.1,30.27,ENE,71,2.0,2.0,89,0.00,,,0.00,Wunderground v.1.15,2013-11-11 12:34:00,
2013-11-11 07:36:00,31.1,28.2,30.27,ENE,70,0.0,2.0,89,0.00,,,0.00,Wunderground v.1.15,2013-11-11 12:36:00,
2013-11-11 07:37:00,31.1,28.2,30.28,ENE,70,3.0,4.0,89,0.00,,,0.00,Wunderground v.1.15,2013-11-11 12:37:00,
2013-11-11 07:38:00,31.1,28.2,30.28,ENE,71,2.0,4.0,89,0.00,,,0.00,Wunderground v.1.15,2013-11-11 12:38:00,
2013-11-11 07:39:00,31.1,28.2,30.28,ENE,71,1.0,1.0,89,0.00,,,0.00,Wunderground v.1.15,2013-11-11 12:39:00,
2013-11-11 07:41:00,31.2,28.3,30.28,ENE,70,2.0,4.0,89,0.00,,,0.00,Wunderground v.1.15,2013-11-11 12:41:00,
2013-11-11 07:43:00,31.2,28.3,30.28,ENE,70,0.0,4.0,89,0.00,,,0.00,Wunderground v.1.15,2013-11-11 12:43:00,
2013-11-11 07:44:00,31.3,28.4,30.28,ENE,70,1.0,4.0,89,0.00,,,0.00,Wunderground v.1.15,2013-11-11 12:44:00,
2013-11-11 07:45:00,31.3,28.4,30.28,ENE,69,2.0,4.0,89,0.00,,,0.00,Wunderground v.1.15,2013-11-11 12:45:00,
2013-11-11 07:46:00,31.4,28.5,30.28,ENE,70,4.0,4.0,89,0.00,,,0.00,Wunderground v.1.15,2013-11-11 12:46:00,
2013-11-11 07:47:00,31.4,28.5,30.28,ENE,70,2.0,4.0,89,0.00,,,0.00,Wunderground v.1.15,2013-11-11 12:47:00,
2013-11-11 07:49:00,31.4,28.5,30.28,ENE,70,2.0,4.0,89,0.00,,,0.00,Wunderground v.1.15,2013-11-11 12:49:00,
2013-11-11 07:50:00,31.5,28.6,30.27,ENE,70,1.0,2.0,89,0.00,,,0.00,Wunderground v.1.15,2013-11-11 12:50:00,
2013-11-11 07:52:00,31.5,28.6,30.27,ENE,70,3.0,3.0,89,0.00,,,0.00,Wunderground v.1.15,2013-11-11 12:52:00,
2013-11-11 07:54:00,31.5,28.6,30.27,ENE,69,1.0,3.0,89,0.00,,,0.00,Wunderground v.1.15,2013-11-11 12:54:00,
2013-11-11 07:55:00,31.6,28.7,30.28,ENE,70,2.0,3.0,89,0.00,,,0.00,Wunderground v.1.15,2013-11-11 12:55:00,
2013-11-11 07:56:00,31.7,28.8,30.28,ENE,70,0.0,3.0,89,0.00,,,0.00,Wunderground v.1.15,2013-11-11 12:56:00,
2013-11-11 07:57:00,31.7,28.8,30.27,ENE,70,1.0,3.0,89,0.00,,,0.00,Wunderground v.1.15,2013-11-11 12:57:00,
2013-11-11 07:58:00,31.8,28.9,30.27,ENE,69,1.0,3.0,89,0.00,,,0.00,Wunderground v.1.15,2013-11-11 12:58:00,
2013-11-11 07:59:00,32.0,29.1,30.27,ENE,70,0.0,3.0,89,0.00,,,0.00,Wunderground v.1.15,2013-11-11 12:59:00,
2013-11-11 08:01:00,32.1,29.2,30.27,ENE,69,0.0,1.0,89,0.00,,,0.00,Wunderground v.1.15,2013-11-11 13:01:00,
2013-11-11 08:02:00,32.3,29.4,30.28,ENE,69,0.0,1.0,89,0.00,,,0.00,Wunderground v.1.15,2013-11-11 13:02:00,
2013-11-11 08:03:00,32.3,29.4,30.28,ENE,70,1.0,1.0,89,0.00,,,0.00,Wunderground v.1.15,2013-11-11 13:03:00,
2013-11-11 08:04:00,32.4,29.2,30.28,ENE,70,0.0,1.0,88,0.00,,,0.00,Wunderground v.1.15,2013-11-11 13:04:00,
2013-11-11 08:05:00,32.5,29.3,30.28,ENE,70,0.0,1.0,88,0.00,,,0.00,Wunderground v.1.15,2013-11-11 13:05:00,
2013-11-11 08:06:00,32.6,29.4,30.28,ENE,70,0.0,1.0,88,0.00,,,0.00,Wunderground v.1.15,2013-11-11 13:06:00,
2013-11-11 08:07:00,32.8,29.6,30.28,ENE,69,0.0,1.0,88,0.00,,,0.00,Wunderground v.1.15,2013-11-11 13:07:00,
2013-11-11 08:08:00,32.8,29.6,30.28,ENE,70,0.0,1.0,88,0.00,,,0.00,Wunderground v.1.15,2013-11-11 13:08:00,
2013-11-11 08:10:00,33.0,29.8,30.28,ENE,70,0.0,0.0,88,0.00,,,0.00,Wunderground v.1.15,2013-11-11 13:10:00,
2013-11-11 08:11:00,33.2,30.0,30.28,ENE,69,0.0,0.0,88,0.00,,,0.00,Wunderground v.1.15,2013-11-11 13:11:00,
2013-11-11 08:12:00,33.2,30.0,30.28,ENE,70,0.0,1.0,88,0.00,,,0.00,Wunderground v.1.15,2013-11-11 13:12:00,
2013-11-11 08:13:00,33.4,30.2,30.28,ENE,70,0.0,1.0,88,0.00,,,0.00,Wunderground v.1.15,2013-11-11 13:13:00,
2013-11-11 08:15:00,33.6,30.4,30.28,ENE,70,1.0,2.0,88,0.00,,,0.00,Wunderground v.1.15,2013-11-11 13:15:00,
2013-11-11 08:16:00,33.6,30.1,30.28,ENE,70,0.0,2.0,87,0.00,,,0.00,Wunderground v.1.15,2013-11-11 13:16:00,
2013-11-11 08:17:00,33.7,30.2,30.28,ENE,70,0.0,2.0,87,0.00,,,0.00,Wunderground v.1.15,2013-11-11 13:17:00,
2013-11-11 08:19:00,33.9,30.4,30.29,ENE,69,0.0,2.0,87,0.00,,,0.00,Wunderground v.1.15,2013-11-11 13:19:00,
2013-11-11 08:20:00,34.0,30.5,30.28,ENE,70,0.0,1.0,87,0.00,,,0.00,Wunderground v.1.15,2013-11-11 13:20:00,
2013-11-11 08:21:00,34.2,30.4,30.28,ENE,70,0.0,1.0,86,0.00,,,0.00,Wunderground v.1.15,2013-11-11 13:21:00,
2013-11-11 08:22:00,34.2,30.4,30.29,ENE,69,1.0,1.0,86,0.00,,,0.00,Wunderground v.1.15,2013-11-11 13:22:00,
2013-11-11 08:24:00,34.4,30.6,30.29,ENE,70,1.0,1.0,86,0.00,,,0.00,Wunderground v.1.15,2013-11-11 13:24:00,
2013-11-11 08:26:00,34.4,30.4,30.29,ENE,69,0.0,1.0,85,0.00,,,0.00,Wunderground v.1.15,2013-11-11 13:26:00,
2013-11-11 08:27:00,34.7,30.7,30.29,ENE,70,0.0,1.0,85,0.00,,,0.00,Wunderground v.1.15,2013-11-11 13:27:00,
2013-11-11 08:29:00,35.0,30.9,30.29,ENE,69,0.0,1.0,85,0.00,,,0.00,Wunderground v.1.15,2013-11-11 13:29:00,
2013-11-11 08:31:00,35.4,31.3,30.29,ENE,69,0.0,1.0,85,0.00,,,0.00,Wunderground v.1.15,2013-11-11 13:31:00,
2013-11-11 08:32:00,35.5,31.4,30.29,ENE,70,0.0,1.0,85,0.00,,,0.00,Wunderground v.1.15,2013-11-11 13:32:00,
2013-11-11 08:33:00,35.7,31.6,30.29,ENE,69,0.0,1.0,85,0.00,,,0.00,Wunderground v.1.15,2013-11-11 13:33:00,
2013-11-11 08:34:00,35.9,31.8,30.29,ENE,70,0.0,1.0,85,0.00,,,0.00,Wunderground v.1.15,2013-11-11 13:34:00,
2013-11-11 08:35:00,36.1,31.7,30.29,ENE,69,0.0,1.0,84,0.00,,,0.00,Wunderground v.1.15,2013-11-11 13:35:00,
2013-11-11 08:37:00,36.5,32.1,30.29,ENE,70,1.0,2.0,84,0.00,,,0.00,Wunderground v.1.15,2013-11-11 13:37:00,
2013-11-11 08:38:00,36.7,32.0,30.29,ENE,70,0.0,2.0,83,0.00,,,0.00,Wunderground v.1.15,2013-11-11 13:38:00,
2013-11-11 08:39:00,37.0,32.3,30.29,ENE,70,0.0,2.0,83,0.00,,,0.00,Wunderground v.1.15,2013-11-11 13:39:00,
2013-11-11 08:40:00,37.1,32.1,30.29,ENE,69,0.0,0.0,82,0.00,,,0.00,Wunderground v.1.15,2013-11-11 13:40:00,
2013-11-11 08:42:00,37.5,32.5,30.29,ENE,69,0.0,1.0,82,0.00,,,0.00,Wunderground v.1.15,2013-11-11 13:42:00,
2013-11-11 08:43:00,37.7,32.7,30.29,ENE,70,0.0,1.0,82,0.00,,,0.00,Wunderground v.1.15,2013-11-11 13:43:00,
2013-11-11 08:45:00,38.0,32.7,30.29,ENE,70,2.0,2.0,81,0.00,,,0.00,Wunderground v.1.15,2013-11-11 13:45:00,
2013-11-11 08:47:00,38.3,32.7,30.29,ENE,69,0.0,2.0,80,0.00,,,0.00,Wunderground v.1.15,2013-11-11 13:47:00,
2013-11-11 08:48:00,38.6,33.0,30.29,ENE,69,1.0,2.0,80,0.00,,,0.00,Wunderground v.1.15,2013-11-11 13:48:00,
2013-11-11 08:49:00,38.6,33.0,30.29,ENE,69,0.0,2.0,80,0.00,,,0.00,Wunderground v.1.15,2013-11-11 13:49:00,
2013-11-11 08:50:00,38.8,33.2,30.29,ENE,70,0.0,2.0,80,0.00,,,0.00,Wunderground v.1.15,2013-11-11 13:50:00,
2013-11-11 08:52:00,39.0,33.0,30.29,ENE,69,0.0,3.0,79,0.00,,,0.00,Wunderground v.1.15,2013-11-11 13:52:00,
2013-11-11 08:53:00,39.2,33.2,30.29,ENE,70,1.0,3.0,79,0.00,,,0.00,Wunderground v.1.15,2013-11-11 13:53:00,
2013-11-11 08:54:00,39.2,32.9,30.29,ENE,69,1.0,3.0,78,0.00,,,0.00,Wunderground v.1.15,2013-11-11 13:54:00,
2013-11-11 08:55:00,39.4,33.1,30.29,ENE,69,1.0,3.0,78,0.00,,,0.00,Wunderground v.1.15,2013-11-11 13:55:00,
2013-11-11 08:57:00,39.5,32.9,30.30,ENE,70,2.0,3.0,77,0.00,,,0.00,Wunderground v.1.15,2013-11-11 13:57:00,
2013-11-11 08:58:00,39.6,33.0,30.30,ENE,70,2.0,3.0,77,0.00,,,0.00,Wunderground v.1.15,2013-11-11 13:58:00,
2013-11-11 08:59:00,39.8,33.5,30.29,ENE,69,0.0,3.0,78,0.00,,,0.00,Wunderground v.1.15,2013-11-11 13:59:00,
2013-11-11 09:00:00,39.9,32.9,30.29,ENE,70,0.0,2.0,76,0.00,,,0.00,Wunderground v.1.15,2013-11-11 14:00:00,
2013-11-11 09:02:00,40.1,33.1,30.29,ENE,70,0.0,3.0,76,0.00,,,0.00,Wunderground v.1.15,2013-11-11 14:02:00,
2013-11-11 09:03:00,40.2,33.2,30.29,ENE,70,0.0,3.0,76,0.00,,,0.00,Wunderground v.1.15,2013-11-11 14:03:00,
2013-11-11 09:04:00,40.3,33.3,30.29,ENE,70,1.0,3.0,76,0.00,,,0.00,Wunderground v.1.15,2013-11-11 14:04:00,
2013-11-11 09:07:00,40.7,33.4,30.30,ENE,69,0.0,3.0,75,0.00,,,0.00,Wunderground v.1.15,2013-11-11 14:07:00,
2013-11-11 09:08:00,40.8,33.5,30.29,ENE,70,0.0,3.0,75,0.00,,,0.00,Wunderground v.1.15,2013-11-11 14:08:00,
2013-11-11 09:09:00,41.0,34.0,30.29,ENE,70,0.0,3.0,76,0.00,,,0.00,Wunderground v.1.15,2013-11-11 14:09:00,
2013-11-11 09:10:00,41.1,34.1,30.29,ENE,69,2.0,2.0,76,0.00,,,0.00,Wunderground v.1.15,2013-11-11 14:10:00,
2013-11-11 09:12:00,41.3,33.6,30.29,ENE,70,0.0,2.0,74,0.00,,,0.00,Wunderground v.1.15,2013-11-11 14:12:00,
2013-11-11 09:13:00,41.5,34.2,30.29,ENE,70,2.0,2.0,75,0.00,,,0.00,Wunderground v.1.15,2013-11-11 14:13:00,
2013-11-11 09:14:00,41.6,33.6,30.29,ENE,70,1.0,4.0,73,0.00,,,0.00,Wunderground v.1.15,2013-11-11 14:14:00,
2013-11-11 09:15:00,41.8,34.1,30.29,ENE,69,1.0,4.0,74,0.00,,,0.00,Wunderground v.1.15,2013-11-11 14:15:00,
2013-11-11 09:17:00,42.1,33.4,30.29,ENE,71,2.0,4.0,71,0.00,,,0.00,Wunderground v.1.15,2013-11-11 14:17:00,
2013-11-11 09:18:00,42.2,33.5,30.29,ENE,71,1.0,4.0,71,0.00,,,0.00,Wunderground v.1.15,2013-11-11 14:18:00,
2013-11-11 09:20:00,42.4,34.0,30.29,ENE,72,0.0,1.0,72,0.00,,,0.00,Wunderground v.1.15,2013-11-11 14:20:00,
2013-11-11 09:21:00,42.5,34.1,30.29,ENE,72,0.0,1.0,72,0.00,,,0.00,Wunderground v.1.15,2013-11-11 14:21:00,
2013-11-11 09:23:00,42.8,34.7,30.29,ENE,74,2.0,3.0,73,0.00,,,0.00,Wunderground v.1.15,2013-11-11 14:23:00,
2013-11-11 09:24:00,42.9,34.5,30.28,ENE,74,2.0,3.0,72,0.00,,,0.00,Wunderground v.1.15,2013-11-11 14:24:00,
2013-11-11 09:25:00,43.2,34.4,30.29,ENE,74,1.0,3.0,71,0.00,,,0.00,Wunderground v.1.15,2013-11-11 14:25:00,
2013-11-11 09:26:00,43.2,34.4,30.29,ENE,74,1.0,3.0,71,0.00,,,0.00,Wunderground v.1.15,2013-11-11 14:26:00,
2013-11-11 09:28:00,43.6,34.5,30.29,East,80,2.0,4.0,70,0.00,,,0.00,Wunderground v.1.15,2013-11-11 14:28:00,
2013-11-11 09:29:00,43.7,34.6,30.29,East,85,2.0,4.0,70,0.00,,,0.00,Wunderground v.1.15,2013-11-11 14:29:00,
2013-11-11 09:30:00,43.9,34.4,30.29,ENE,72,1.0,5.0,69,0.00,,,0.00,Wunderground v.1.15,2013-11-11 14:30:00,
2013-11-11 09:31:00,44.0,34.5,30.29,ENE,72,1.0,5.0,69,0.00,,,0.00,Wunderground v.1.15,2013-11-11 14:31:00,
2013-11-11 09:32:00,44.2,35.0,30.29,ENE,73,0.0,5.0,70,0.00,,,0.00,Wunderground v.1.15,2013-11-11 14:32:00,
2013-11-11 09:33:00,44.3,35.5,30.29,ENE,73,4.0,5.0,71,0.00,,,0.00,Wunderground v.1.15,2013-11-11 14:33:00,
2013-11-11 09:34:00,44.5,35.0,30.29,ENE,72,3.0,5.0,69,0.00,,,0.00,Wunderground v.1.15,2013-11-11 14:34:00,
2013-11-11 09:35:00,44.6,34.7,30.29,ENE,67,2.0,6.0,68,0.00,,,0.00,Wunderground v.1.15,2013-11-11 14:35:00,
2013-11-11 09:36:00,44.7,35.1,30.29,ENE,67,2.0,6.0,69,0.00,,,0.00,Wunderground v.1.15,2013-11-11 14:36:00,
2013-11-11 09:37:00,44.9,35.3,30.29,East,84,0.0,6.0,69,0.00,,,0.00,Wunderground v.1.15,2013-11-11 14:37:00,
2013-11-11 09:38:00,45.0,35.4,30.29,East,86,2.0,6.0,69,0.00,,,0.00,Wunderground v.1.15,2013-11-11 14:38:00,
2013-11-11 09:39:00,45.1,35.2,30.29,East,86,0.0,6.0,68,0.00,,,0.00,Wunderground v.1.15,2013-11-11 14:39:00,
2013-11-11 09:40:00,45.2,35.3,30.29,East,86,4.0,4.0,68,0.00,,,0.00,Wunderground v.1.15,2013-11-11 14:40:00,
2013-11-11 09:41:00,45.4,35.1,30.28,East,84,3.0,5.0,67,0.00,,,0.00,Wunderground v.1.15,2013-11-11 14:41:00,
2013-11-11 09:43:00,45.6,34.9,30.28,East,83,4.0,5.0,66,0.00,,,0.00,Wunderground v.1.15,2013-11-11 14:43:00,
2013-11-11 09:44:00,45.7,35.0,30.28,East,84,1.0,5.0,66,0.00,,,0.00,Wunderground v.1.15,2013-11-11 14:44:00,
2013-11-11 09:45:00,45.8,35.1,30.28,East,84,2.0,5.0,66,0.00,,,0.00,Wunderground v.1.15,2013-11-11 14:45:00,
2013-11-11 09:46:00,46.0,35.3,30.28,East,84,0.0,5.0,66,0.00,,,0.00,Wunderground v.1.15,2013-11-11 14:46:00,
2013-11-11 09:47:00,46.1,35.4,30.28,East,84,4.0,5.0,66,0.00,,,0.00,Wunderground v.1.15,2013-11-11 14:47:00,
2013-11-11 09:49:00,46.3,35.2,30.28,East,83,0.0,5.0,65,0.00,,,0.00,Wunderground v.1.15,2013-11-11 14:49:00,
2013-11-11 09:50:00,46.4,35.3,30.28,East,83,3.0,3.0,65,0.00,,,0.00,Wunderground v.1.15,2013-11-11 14:50:00,
2013-11-11 09:51:00,46.5,35.0,30.28,East,84,1.0,3.0,64,0.00,,,0.00,Wunderground v.1.15,2013-11-11 14:51:00,
2013-11-11 09:52:00,46.6,35.1,30.28,East,84,0.0,3.0,64,0.00,,,0.00,Wunderground v.1.15,2013-11-11 14:52:00,
2013-11-11 09:54:00,46.9,35.7,30.28,East,84,0.0,3.0,65,0.00,,,0.00,Wunderground v.1.15,2013-11-11 14:54:00,
2013-11-11 09:55:00,47.0,35.4,30.28,East,83,3.0,5.0,64,0.00,,,0.00,Wunderground v.1.15,2013-11-11 14:55:00,
2013-11-11 09:56:00,47.2,35.6,30.28,East,83,1.0,5.0,64,0.00,,,0.00,Wunderground v.1.15,2013-11-11 14:56:00,
2013-11-11 09:57:00,47.2,35.6,30.28,East,83,1.0,5.0,64,0.00,,,0.00,Wunderground v.1.15,2013-11-11 14:57:00,
2013-11-11 10:00:00,47.6,35.6,30.28,East,83,2.0,3.0,63,0.00,,,0.00,Wunderground v.1.15,2013-11-11 15:00:00,
2013-11-11 10:01:00,47.8,35.8,30.27,East,83,2.0,3.0,63,0.00,,,0.00,Wunderground v.1.15,2013-11-11 15:01:00,
2013-11-11 10:02:00,48.0,36.0,30.28,East,83,1.0,3.0,63,0.00,,,0.00,Wunderground v.1.15,2013-11-11 15:02:00,
2013-11-11 10:03:00,48.2,35.8,30.28,East,83,0.0,3.0,62,0.00,,,0.00,Wunderground v.1.15,2013-11-11 15:03:00,
2013-11-11 10:05:00,48.4,36.4,30.28,East,83,0.0,3.0,63,0.00,,,0.00,Wunderground v.1.15,2013-11-11 15:05:00,
2013-11-11 10:06:00,48.6,36.2,30.28,East,83,4.0,4.0,62,0.00,,,0.00,Wunderground v.1.15,2013-11-11 15:06:00,
2013-11-11 10:07:00,48.8,35.9,30.28,East,83,0.0,4.0,61,0.00,,,0.00,Wunderground v.1.15,2013-11-11 15:07:00,
2013-11-11 10:08:00,48.8,35.9,30.28,East,83,1.0,4.0,61,0.00,,,0.00,Wunderground v.1.15,2013-11-11 15:08:00,
2013-11-11 10:09:00,49.0,36.9,30.28,East,83,1.0,4.0,63,0.00,,,0.00,Wunderground v.1.15,2013-11-11 15:09:00,
2013-11-11 10:10:00,49.2,37.1,30.28,East,83,0.0,1.0,63,0.00,,,0.00,Wunderground v.1.15,2013-11-11 15:10:00,
2013-11-11 10:12:00,49.6,36.3,30.28,East,85,2.0,4.0,60,0.00,,,0.00,Wunderground v.1.15,2013-11-11 15:12:00,
2013-11-11 10:13:00,49.6,36.3,30.28,East,84,2.0,4.0,60,0.00,,,0.00,Wunderground v.1.15,2013-11-11 15:13:00,
2013-11-11 10:15:00,49.8,36.0,30.28,East,85,1.0,4.0,59,0.00,,,0.00,Wunderground v.1.15,2013-11-11 15:15:00,
2013-11-11 10:16:00,49.9,36.6,30.28,East,85,3.0,4.0,60,0.00,,,0.00,Wunderground v.1.15,2013-11-11 15:16:00,
2013-11-11 10:18:00,50.1,36.7,30.28,East,85,2.0,4.0,60,0.00,,,0.00,Wunderground v.1.15,2013-11-11 15:18:00,
2013-11-11 10:20:00,50.3,36.1,30.28,East,85,1.0,2.0,58,0.00,,,0.00,Wunderground v.1.15,2013-11-11 15:20:00,
2013-11-11 10:21:00,50.4,36.2,30.28,East,85,0.0,2.0,58,0.00,,,0.00,Wunderground v.1.15,2013-11-11 15:21:00,
2013-11-11 10:23:00,50.6,36.8,30.28,East,85,0.0,3.0,59,0.00,,,0.00,Wunderground v.1.15,2013-11-11 15:23:00,
2013-11-11 10:24:00,50.7,36.9,30.28,East,85,1.0,4.0,59,0.00,,,0.00,Wunderground v.1.15,2013-11-11 15:24:00,
2013-11-11 10:25:00,50.9,36.6,30.28,East,84,1.0,4.0,58,0.00,,,0.00,Wunderground v.1.15,2013-11-11 15:25:00,
2013-11-11 10:26:00,50.9,36.2,30.28,East,84,0.0,4.0,57,0.00,,,0.00,Wunderground v.1.15,2013-11-11 15:26:00,
2013-11-11 10:28:00,51.1,35.9,30.27,East,85,0.0,4.0,56,0.00,,,0.00,Wunderground v.1.15,2013-11-11 15:28:00,
2013-11-11 10:29:00,51.2,36.5,30.28,East,85,1.0,4.0,57,0.00,,,0.00,Wunderground v.1.15,2013-11-11 15:29:00,
2013-11-11 10:30:00,51.3,36.1,30.27,East,85,0.0,1.0,56,0.00,,,0.00,Wunderground v.1.15,2013-11-11 15:30:00,
2013-11-11 10:32:00,51.5,36.8,30.28,East,85,0.0,1.0,57,0.00,,,0.00,Wunderground v.1.15,2013-11-11 15:32:00,
2013-11-11 10:33:00,51.6,36.9,30.28,East,84,1.0,2.0,57,0.00,,,0.00,Wunderground v.1.15,2013-11-11 15:33:00,
2013-11-11 10:34:00,51.7,36.5,30.28,East,87,2.0,3.0,56,0.00,,,0.00,Wunderground v.1.15,2013-11-11 15:34:00,
2013-11-11 10:35:00,51.7,36.5,30.28,East,87,1.0,3.0,56,0.00,,,0.00,Wunderground v.1.15,2013-11-11 15:35:00,
2013-11-11 10:36:00,51.7,36.5,30.28,East,87,2.0,3.0,56,0.00,,,0.00,Wunderground v.1.15,2013-11-11 15:36:00,
2013-11-11 10:37:00,51.9,37.1,30.28,East,87,1.0,3.0,57,0.00,,,0.00,Wunderground v.1.15,2013-11-11 15:37:00,
2013-11-11 10:38:00,51.9,36.7,30.28,East,92,0.0,3.0,56,0.00,,,0.00,Wunderground v.1.15,2013-11-11 15:38:00,
2013-11-11 10:39:00,52.0,36.8,30.27,East,92,0.0,3.0,56,0.00,,,0.00,Wunderground v.1.15,2013-11-11 15:39:00,
2013-11-11 10:40:00,52.0,36.8,30.27,East,92,0.0,1.0,56,0.00,,,0.00,Wunderground v.1.15,2013-11-11 15:40:00,
2013-11-11 10:41:00,52.1,37.3,30.27,ESE,113,3.0,3.0,57,0.00,,,0.00,Wunderground v.1.15,2013-11-11 15:41:00,
2013-11-11 10:42:00,52.1,36.9,30.27,SW,218,5.0,5.0,56,0.00,,,0.00,Wunderground v.1.15,2013-11-11 15:42:00,
2013-11-11 10:45:00,52.2,37.4,30.27,SW,218,0.0,5.0,57,0.00,,,0.00,Wunderground v.1.15,2013-11-11 15:45:00,
2013-11-11 10:46:00,52.3,37.1,30.27,SW,217,4.0,5.0,56,0.00,,,0.00,Wunderground v.1.15,2013-11-11 15:46:00,
2013-11-11 10:48:00,52.4,37.2,30.27,SW,217,1.0,5.0,56,0.00,,,0.00,Wunderground v.1.15,2013-11-11 15:48:00,
2013-11-11 10:50:00,52.6,36.9,30.27,SW,232,0.0,2.0,55,0.00,,,0.00,Wunderground v.1.15,2013-11-11 15:50:00,
2013-11-11 10:51:00,52.7,37.4,30.27,SW,232,3.0,3.0,56,0.00,,,0.00,Wunderground v.1.15,2013-11-11 15:51:00,
2013-11-11 10:53:00,53.0,37.7,30.27,SW,232,0.0,3.0,56,0.00,,,0.00,Wunderground v.1.15,2013-11-11 15:53:00,
2013-11-11 10:54:00,53.1,37.8,30.27,SW,232,0.0,3.0,56,0.00,,,0.00,Wunderground v.1.15,2013-11-11 15:54:00,
2013-11-11 10:55:00,53.3,38.9,30.27,SW,232,2.0,3.0,58,0.00,,,0.00,Wunderground v.1.15,2013-11-11 15:55:00,
2013-11-11 10:56:00,53.5,38.6,30.27,SW,232,2.0,3.0,57,0.00,,,0.00,Wunderground v.1.15,2013-11-11 15:56:00,
2013-11-11 10:57:00,53.6,38.3,30.27,SW,233,2.0,3.0,56,0.00,,,0.00,Wunderground v.1.15,2013-11-11 15:57:00,
2013-11-11 10:58:00,53.8,38.5,30.27,SW,232,3.0,4.0,56,0.00,,,0.00,Wunderground v.1.15,2013-11-11 15:58:00,
2013-11-11 10:59:00,53.9,38.6,30.27,SW,232,1.0,4.0,56,0.00,,,0.00,Wunderground v.1.15,2013-11-11 15:59:00,
2013-11-11 11:00:00,54.0,38.6,30.27,SW,232,2.0,3.0,56,0.00,,,0.00,Wunderground v.1.15,2013-11-11 16:00:00,
2013-11-11 11:01:00,54.1,38.7,30.27,SW,232,0.0,3.0,56,0.00,,,0.00,Wunderground v.1.15,2013-11-11 16:01:00,
2013-11-11 11:02:00,54.1,38.7,30.27,SW,232,2.0,3.0,56,0.00,,,0.00,Wunderground v.1.15,2013-11-11 16:02:00,
2013-11-11 11:03:00,54.2,38.8,30.26,SW,226,1.0,4.0,56,0.00,,,0.00,Wunderground v.1.15,2013-11-11 16:03:00,
2013-11-11 11:04:00,54.2,38.8,30.26,SW,227,2.0,4.0,56,0.00,,,0.00,Wunderground v.1.15,2013-11-11 16:04:00,
2013-11-11 11:05:00,54.1,38.7,30.26,SW,225,4.0,5.0,56,0.00,,,0.00,Wunderground v.1.15,2013-11-11 16:05:00,
2013-11-11 11:07:00,54.1,38.7,30.26,SW,225,1.0,5.0,56,0.00,,,0.00,Wunderground v.1.15,2013-11-11 16:07:00,
2013-11-11 11:09:00,54.1,39.6,30.25,SW,225,3.0,5.0,58,0.00,,,0.00,Wunderground v.1.15,2013-11-11 16:09:00,
2013-11-11 11:11:00,54.3,38.9,30.26,SW,225,2.0,6.0,56,0.00,,,0.00,Wunderground v.1.15,2013-11-11 16:11:00,
2013-11-11 11:12:00,54.3,38.9,30.26,SW,225,1.0,6.0,56,0.00,,,0.00,Wunderground v.1.15,2013-11-11 16:12:00,
2013-11-11 11:14:00,54.4,39.5,30.26,SW,217,2.0,6.0,57,0.00,,,0.00,Wunderground v.1.15,2013-11-11 16:14:00,
2013-11-11 11:17:00,54.6,39.2,30.26,SW,217,1.0,6.0,56,0.00,,,0.00,Wunderground v.1.15,2013-11-11 16:17:00,
2013-11-11 11:19:00,54.8,38.0,30.26,SW,217,4.0,6.0,53,0.00,,,0.00,Wunderground v.1.15,2013-11-11 16:19:00,
2013-11-11 11:20:00,54.8,38.0,30.26,SW,217,3.0,5.0,53,0.00,,,0.00,Wunderground v.1.15,2013-11-11 16:20:00,
2013-11-11 11:22:00,54.7,37.4,30.25,SW,216,2.0,5.0,52,0.00,,,0.00,Wunderground v.1.15,2013-11-11 16:22:00,
2013-11-11 11:23:00,54.7,36.9,30.26,SW,216,3.0,5.0,51,0.00,,,0.00,Wunderground v.1.15,2013-11-11 16:23:00,
2013-11-11 11:25:00,54.7,38.4,30.26,SW,216,2.0,5.0,54,0.00,,,0.00,Wunderground v.1.15,2013-11-11 16:25:00,
2013-11-11 11:26:00,54.8,36.5,30.25,SW,217,0.0,5.0,50,0.00,,,0.00,Wunderground v.1.15,2013-11-11 16:26:00,
2013-11-11 11:27:00,54.8,36.5,30.26,SW,217,3.0,5.0,50,0.00,,,0.00,Wunderground v.1.15,2013-11-11 16:27:00,
2013-11-11 11:28:00,54.9,36.6,30.26,SW,217,2.0,5.0,50,0.00,,,0.00,Wunderground v.1.15,2013-11-11 16:28:00,
2013-11-11 11:30:00,54.9,36.6,30.26,SW,217,2.0,3.0,50,0.00,,,0.00,Wunderground v.1.15,2013-11-11 16:30:00,
2013-11-11 11:31:00,55.0,36.2,30.25,SW,217,0.0,3.0,49,0.00,,,0.00,Wunderground v.1.15,2013-11-11 16:31:00,
2013-11-11 11:32:00,55.1,36.8,30.25,SW,221,3.0,4.0,50,0.00,,,0.00,Wunderground v.1.15,2013-11-11 16:32:00,
2013-11-11 11:33:00,55.2,37.4,30.25,WSW,247,2.0,5.0,51,0.00,,,0.00,Wunderground v.1.15,2013-11-11 16:33:00,
2013-11-11 11:35:00,55.4,37.6,30.25,WSW,252,0.0,5.0,51,0.00,,,0.00,Wunderground v.1.15,2013-11-11 16:35:00,
2013-11-11 11:36:00,55.5,38.1,30.25,WSW,252,1.0,5.0,52,0.00,,,0.00,Wunderground v.1.15,2013-11-11 16:36:00,
2013-11-11 11:37:00,55.8,37.9,30.25,WSW,250,1.0,5.0,51,0.00,,,0.00,Wunderground v.1.15,2013-11-11 16:37:00,
2013-11-11 11:39:00,55.9,38.0,30.25,WSW,250,3.0,5.0,51,0.00,,,0.00,Wunderground v.1.15,2013-11-11 16:39:00,
2013-11-11 11:40:00,56.0,37.6,30.25,WSW,250,0.0,2.0,50,0.00,,,0.00,Wunderground v.1.15,2013-11-11 16:40:00,
2013-11-11 11:41:00,56.1,38.7,30.25,SW,234,3.0,5.0,52,0.00,,,0.00,Wunderground v.1.15,2013-11-11 16:41:00,
2013-11-11 11:43:00,56.1,37.7,30.25,SW,233,2.0,5.0,50,0.00,,,0.00,Wunderground v.1.15,2013-11-11 16:43:00,
2013-11-11 11:44:00,56.2,37.8,30.25,SW,230,3.0,7.0,50,0.00,,,0.00,Wunderground v.1.15,2013-11-11 16:44:00,
2013-11-11 11:45:00,56.2,37.8,30.25,SW,231,4.0,7.0,50,0.00,,,0.00,Wunderground v.1.15,2013-11-11 16:45:00,
2013-11-11 11:46:00,56.1,37.7,30.25,SW,231,1.0,7.0,50,0.00,,,0.00,Wunderground v.1.15,2013-11-11 16:46:00,
2013-11-11 11:47:00,56.1,37.7,30.25,SW,230,4.0,7.0,50,0.00,,,0.00,Wunderground v.1.15,2013-11-11 16:47:00,
2013-11-11 11:48:00,56.0,37.1,30.25,SW,231,3.0,7.0,49,0.00,,,0.00,Wunderground v.1.15,2013-11-11 16:48:00,
2013-11-11 11:50:00,55.9,37.0,30.25,SW,231,0.0,2.0,49,0.00,,,0.00,Wunderground v.1.15,2013-11-11 16:50:00,
2013-11-11 11:51:00,55.9,38.0,30.25,SW,230,3.0,5.0,51,0.00,,,0.00,Wunderground v.1.15,2013-11-11 16:51:00,
2013-11-11 11:52:00,56.0,38.1,30.25,SW,230,1.0,5.0,51,0.00,,,0.00,Wunderground v.1.15,2013-11-11 16:52:00,
2013-11-11 11:53:00,56.0,37.6,30.25,SW,231,3.0,5.0,50,0.00,,,0.00,Wunderground v.1.15,2013-11-11 16:53:00,
2013-11-11 11:55:00,56.2,38.3,30.24,SW,231,1.0,5.0,51,0.00,,,0.00,Wunderground v.1.15,2013-11-11 16:55:00,
2013-11-11 11:57:00,56.5,38.6,30.24,SW,230,3.0,5.0,51,0.00,,,0.00,Wunderground v.1.15,2013-11-11 16:57:00,
2013-11-11 11:58:00,56.7,37.7,30.24,SW,231,2.0,5.0,49,0.00,,,0.00,Wunderground v.1.15,2013-11-11 16:58:00,
2013-11-11 11:59:00,56.7,38.3,30.24,SW,230,5.0,5.0,50,0.00,,,0.00,Wunderground v.1.15,2013-11-11 16:59:00,
2013-11-11 12:00:00,56.8,37.8,30.24,SW,229,3.0,6.0,49,0.00,,,0.00,Wunderground v.1.15,2013-11-11 17:00:00,
2013-11-11 12:01:00,56.8,37.8,30.24,SW,229,3.0,6.0,49,0.00,,,0.00,Wunderground v.1.15,2013-11-11 17:01:00,
2013-11-11 12:02:00,57.1,38.6,30.24,SW,229,3.0,6.0,50,0.00,,,0.00,Wunderground v.1.15,2013-11-11 17:02:00,
2013-11-11 12:04:00,57.2,37.7,30.24,SW,229,3.0,6.0,48,0.00,,,0.00,Wunderground v.1.15,2013-11-11 17:04:00,
2013-11-11 12:05:00,57.5,37.9,30.24,SW,229,5.0,6.0,48,0.00,,,0.00,Wunderground v.1.15,2013-11-11 17:05:00,
2013-11-11 12:06:00,57.6,38.0,30.24,SW,229,2.0,6.0,48,0.00,,,0.00,Wunderground v.1.15,2013-11-11 17:06:00,
2013-11-11 12:07:00,57.7,38.1,30.23,WSW,246,3.0,6.0,48,0.00,,,0.00,Wunderground v.1.15,2013-11-11 17:07:00,
2013-11-11 12:08:00,57.8,37.1,30.23,WSW,246,2.0,6.0,46,0.00,,,0.00,Wunderground v.1.15,2013-11-11 17:08:00,
2013-11-11 12:09:00,57.9,37.2,30.23,WSW,243,3.0,6.0,46,0.00,,,0.00,Wunderground v.1.15,2013-11-11 17:09:00,
2013-11-11 12:11:00,58.0,37.3,30.23,WSW,242,2.0,3.0,46,0.00,,,0.00,Wunderground v.1.15,2013-11-11 17:11:00,
2013-11-11 12:13:00,58.1,36.9,30.23,SW,227,2.0,5.0,45,0.00,,,0.00,Wunderground v.1.15,2013-11-11 17:13:00,
2013-11-11 12:14:00,58.2,36.9,30.23,SW,227,0.0,5.0,45,0.00,,,0.00,Wunderground v.1.15,2013-11-11 17:14:00,
2013-11-11 12:16:00,58.2,36.4,30.23,SW,222,2.0,7.0,44,0.00,,,0.00,Wunderground v.1.15,2013-11-11 17:16:00,
2013-11-11 12:17:00,58.2,35.8,30.22,SW,218,3.0,7.0,43,0.00,,,0.00,Wunderground v.1.15,2013-11-11 17:17:00,
2013-11-11 12:18:00,58.2,35.8,30.22,SW,218,2.0,7.0,43,0.00,,,0.00,Wunderground v.1.15,2013-11-11 17:18:00,
2013-11-11 12:19:00,58.1,36.3,30.22,SW,218,1.0,7.0,44,0.00,,,0.00,Wunderground v.1.15,2013-11-11 17:19:00,
2013-11-11 12:21:00,58.3,35.9,30.22,SW,221,3.0,4.0,43,0.00,,,0.00,Wunderground v.1.15,2013-11-11 17:21:00,
2013-11-11 12:22:00,58.4,36.0,30.22,SW,215,1.0,4.0,43,0.00,,,0.00,Wunderground v.1.15,2013-11-11 17:22:00,
2013-11-11 12:23:00,58.5,36.6,30.22,SW,215,1.0,4.0,44,0.00,,,0.00,Wunderground v.1.15,2013-11-11 17:23:00,
2013-11-11 12:24:00,58.7,36.8,30.22,South,189,4.0,6.0,44,0.00,,,0.00,Wunderground v.1.15,2013-11-11 17:24:00,
2013-11-11 12:25:00,58.8,36.9,30.21,South,188,3.0,6.0,44,0.00,,,0.00,Wunderground v.1.15,2013-11-11 17:25:00,
2013-11-11 12:27:00,59.0,36.5,30.22,SW,221,0.0,6.0,43,0.00,,,0.00,Wunderground v.1.15,2013-11-11 17:27:00,
2013-11-11 12:28:00,59.0,36.5,30.22,SW,221,2.0,6.0,43,0.00,,,0.00,Wunderground v.1.15,2013-11-11 17:28:00,
2013-11-11 12:30:00,59.2,37.3,30.21,SW,221,2.0,2.0,44,0.00,,,0.00,Wunderground v.1.15,2013-11-11 17:30:00,
2013-11-11 12:32:00,59.7,36.6,30.21,SW,229,2.0,4.0,42,0.00,,,0.00,Wunderground v.1.15,2013-11-11 17:32:00,
2013-11-11 12:33:00,59.8,36.0,30.21,SSW,211,4.0,4.0,41,0.00,,,0.00,Wunderground v.1.15,2013-11-11 17:33:00,
2013-11-11 12:35:00,60.0,36.8,30.21,West,263,3.0,7.0,42,0.00,,,0.00,Wunderground v.1.15,2013-11-11 17:35:00,
2013-11-11 12:38:00,60.4,35.3,30.21,West,263,0.0,7.0,39,0.00,,,0.00,Wunderground v.1.15,2013-11-11 17:38:00,
2013-11-11 12:39:00,60.4,35.3,30.21,West,259,2.0,7.0,39,0.00,,,0.00,Wunderground v.1.15,2013-11-11 17:39:00,
2013-11-11 12:40:00,60.4,35.3,30.21,West,259,0.0,2.0,39,0.00,,,0.00,Wunderground v.1.15,2013-11-11 17:40:00,
2013-11-11 12:42:00,60.5,35.4,30.21,West,259,2.0,3.0,39,0.00,,,0.00,Wunderground v.1.15,2013-11-11 17:42:00,
2013-11-11 12:43:00,60.5,36.0,30.21,West,259,2.0,3.0,40,0.00,,,0.00,Wunderground v.1.15,2013-11-11 17:43:00,
2013-11-11 12:44:00,60.6,36.8,30.21,West,259,3.0,3.0,41,0.00,,,0.00,Wunderground v.1.15,2013-11-11 17:44:00,
2013-11-11 12:45:00,60.7,36.8,30.21,WSW,256,4.0,4.0,41,0.00,,,0.00,Wunderground v.1.15,2013-11-11 17:45:00,
2013-11-11 12:48:00,61.1,36.6,30.20,WSW,251,4.0,5.0,40,0.00,,,0.00,Wunderground v.1.15,2013-11-11 17:48:00,
2013-11-11 12:49:00,61.2,36.0,30.20,WSW,242,0.0,5.0,39,0.00,,,0.00,Wunderground v.1.15,2013-11-11 17:49:00,
2013-11-11 12:50:00,61.2,36.0,30.20,WSW,242,1.0,2.0,39,0.00,,,0.00,Wunderground v.1.15,2013-11-11 17:50:00,
2013-11-11 12:51:00,61.3,36.1,30.20,WSW,242,0.0,2.0,39,0.00,,,0.00,Wunderground v.1.15,2013-11-11 17:51:00,
2013-11-11 12:53:00,61.6,37.0,30.20,WSW,242,6.0,6.0,40,0.00,,,0.00,Wunderground v.1.15,2013-11-11 17:53:00,
2013-11-11 12:54:00,61.6,36.4,30.20,SSW,210,4.0,7.0,39,0.00,,,0.00,Wunderground v.1.15,2013-11-11 17:54:00,
2013-11-11 12:55:00,61.5,35.6,30.20,SSW,209,4.0,7.0,38,0.00,,,0.00,Wunderground v.1.15,2013-11-11 17:55:00,
2013-11-11 12:56:00,61.4,35.5,30.19,SSW,213,6.0,7.0,38,0.00,,,0.00,Wunderground v.1.15,2013-11-11 17:56:00,
2013-11-11 12:58:00,61.0,35.8,30.20,SSW,213,4.0,7.0,39,0.00,,,0.00,Wunderground v.1.15,2013-11-11 17:58:00,
2013-11-11 12:59:00,61.0,36.5,30.19,SW,214,1.0,7.0,40,0.00,,,0.00,Wunderground v.1.15,2013-11-11 17:59:00,
2013-11-11 13:01:00,60.9,36.4,30.20,SW,226,1.0,6.0,40,0.00,,,0.00,Wunderground v.1.15,2013-11-11 18:01:00,
2013-11-11 13:02:00,60.9,36.4,30.19,SW,226,0.0,6.0,40,0.00,,,0.00,Wunderground v.1.15,2013-11-11 18:02:00,
2013-11-11 13:03:00,61.0,35.8,30.19,SSW,207,3.0,6.0,39,0.00,,,0.00,Wunderground v.1.15,2013-11-11 18:03:00,
2013-11-11 13:04:00,61.0,36.5,30.20,SW,223,4.0,6.0,40,0.00,,,0.00,Wunderground v.1.15,2013-11-11 18:04:00,
2013-11-11 13:05:00,61.1,36.6,30.20,SW,223,1.0,6.0,40,0.00,,,0.00,Wunderground v.1.15,2013-11-11 18:05:00,
2013-11-11 13:06:00,61.1,36.6,30.19,WNW,292,1.0,6.0,40,0.00,,,0.00,Wunderground v.1.15,2013-11-11 18:06:00,
2013-11-11 13:07:00,61.3,36.1,30.19,WNW,292,1.0,6.0,39,0.00,,,0.00,Wunderground v.1.15,2013-11-11 18:07:00,
2013-11-11 13:09:00,61.9,36.7,30.19,WNW,288,0.0,6.0,39,0.00,,,0.00,Wunderground v.1.15,2013-11-11 18:09:00,
2013-11-11 13:11:00,62.2,36.3,30.19,WNW,288,3.0,4.0,38,0.00,,,0.00,Wunderground v.1.15,2013-11-11 18:11:00,
2013-11-11 13:12:00,62.3,35.7,30.19,WNW,287,2.0,4.0,37,0.00,,,0.00,Wunderground v.1.15,2013-11-11 18:12:00,
2013-11-11 13:14:00,62.7,36.0,30.19,WNW,288,4.0,4.0,37,0.00,,,0.00,Wunderground v.1.15,2013-11-11 18:14:00,
2013-11-11 13:16:00,62.9,36.9,30.19,WNW,284,1.0,4.0,38,0.00,,,0.00,Wunderground v.1.15,2013-11-11 18:16:00,
2013-11-11 13:17:00,63.0,37.0,30.19,West,269,4.0,4.0,38,0.00,,,0.00,Wunderground v.1.15,2013-11-11 18:17:00,
2013-11-11 13:19:00,63.2,36.5,30.19,SW,234,1.0,6.0,37,0.00,,,0.00,Wunderground v.1.15,2013-11-11 18:19:00,
2013-11-11 13:21:00,63.2,37.2,30.19,SW,235,2.0,3.0,38,0.00,,,0.00,Wunderground v.1.15,2013-11-11 18:21:00,
2013-11-11 13:22:00,63.3,36.6,30.19,WNW,286,3.0,4.0,37,0.00,,,0.00,Wunderground v.1.15,2013-11-11 18:22:00,
2013-11-11 13:25:00,63.2,36.5,30.19,NW,304,1.0,4.0,37,0.00,,,0.00,Wunderground v.1.15,2013-11-11 18:25:00,
2013-11-11 13:27:00,63.2,37.2,30.19,SW,230,2.0,6.0,38,0.00,,,0.00,Wunderground v.1.15,2013-11-11 18:27:00,
2013-11-11 13:28:00,63.4,36.0,30.18,SW,215,5.0,7.0,36,0.00,,,0.00,Wunderground v.1.15,2013-11-11 18:28:00,
2013-11-11 13:30:00,63.4,36.7,30.18,West,274,2.0,3.0,37,0.00,,,0.00,Wunderground v.1.15,2013-11-11 18:30:00,
2013-11-11 13:32:00,63.5,36.7,30.18,West,280,3.0,7.0,37,0.00,,,0.00,Wunderground v.1.15,2013-11-11 18:32:00,
2013-11-11 13:33:00,63.5,35.3,30.18,SSW,211,4.0,7.0,35,0.00,,,0.00,Wunderground v.1.15,2013-11-11 18:33:00,
2013-11-11 13:34:00,63.3,35.2,30.18,SSW,211,2.0,7.0,35,0.00,,,0.00,Wunderground v.1.15,2013-11-11 18:34:00,
2013-11-11 13:35:00,63.2,35.1,30.18,SSW,211,3.0,7.0,35,0.00,,,0.00,Wunderground v.1.15,2013-11-11 18:35:00,
2013-11-11 13:37:00,63.2,37.2,30.18,SSW,207,1.0,7.0,38,0.00,,,0.00,Wunderground v.1.15,2013-11-11 18:37:00,
2013-11-11 13:38:00,63.3,36.6,30.18,SSW,209,1.0,7.0,37,0.00,,,0.00,Wunderground v.1.15,2013-11-11 18:38:00,
2013-11-11 13:40:00,63.5,35.3,30.18,SSW,206,2.0,7.0,35,0.00,,,0.00,Wunderground v.1.15,2013-11-11 18:40:00,
2013-11-11 13:42:00,63.6,35.4,30.18,SSW,207,3.0,7.0,35,0.00,,,0.00,Wunderground v.1.15,2013-11-11 18:42:00,
2013-11-11 13:43:00,63.6,35.4,30.18,SW,219,2.0,9.0,35,0.00,,,0.00,Wunderground v.1.15,2013-11-11 18:43:00,
2013-11-11 13:45:00,63.8,36.3,30.17,SW,230,2.0,9.0,36,0.00,,,0.00,Wunderground v.1.15,2013-11-11 18:45:00,
2013-11-11 13:46:00,63.8,35.6,30.18,SW,230,2.0,9.0,35,0.00,,,0.00,Wunderground v.1.15,2013-11-11 18:46:00,
2013-11-11 13:47:00,63.9,35.7,30.17,SW,234,1.0,9.0,35,0.00,,,0.00,Wunderground v.1.15,2013-11-11 18:47:00,
2013-11-11 13:48:00,63.9,36.4,30.17,SW,232,4.0,9.0,36,0.00,,,0.00,Wunderground v.1.15,2013-11-11 18:48:00,
2013-11-11 13:49:00,64.1,35.9,30.17,SW,234,1.0,9.0,35,0.00,,,0.00,Wunderground v.1.15,2013-11-11 18:49:00,
2013-11-11 13:50:00,64.1,35.9,30.17,SW,234,2.0,3.0,35,0.00,,,0.00,Wunderground v.1.15,2013-11-11 18:50:00,
2013-11-11 13:52:00,64.2,36.7,30.17,SW,234,0.0,4.0,36,0.00,,,0.00,Wunderground v.1.15,2013-11-11 18:52:00,
2013-11-11 13:53:00,64.4,36.1,30.17,WSW,241,4.0,4.0,35,0.00,,,0.00,Wunderground v.1.15,2013-11-11 18:53:00,
2013-11-11 13:55:00,64.6,36.3,30.17,WSW,252,3.0,5.0,35,0.00,,,0.00,Wunderground v.1.15,2013-11-11 18:55:00,
2013-11-11 13:56:00,64.6,36.3,30.17,WSW,246,2.0,5.0,35,0.00,,,0.00,Wunderground v.1.15,2013-11-11 18:56:00,
2013-11-11 13:58:00,64.7,37.1,30.17,WSW,247,1.0,5.0,36,0.00,,,0.00,Wunderground v.1.15,2013-11-11 18:58:00,
2013-11-11 14:00:00,64.9,36.6,30.17,West,260,3.0,4.0,35,0.00,,,0.00,Wunderground v.1.15,2013-11-11 19:00:00,
2013-11-11 14:02:00,65.0,35.9,30.17,WSW,238,2.0,4.0,34,0.00,,,0.00,Wunderground v.1.15,2013-11-11 19:02:00,
2013-11-11 14:03:00,65.1,36.0,30.17,WSW,241,4.0,4.0,34,0.00,,,0.00,Wunderground v.1.15,2013-11-11 19:03:00,
2013-11-11 14:04:00,65.1,36.0,30.17,WSW,240,2.0,4.0,34,0.00,,,0.00,Wunderground v.1.15,2013-11-11 19:04:00,
2013-11-11 14:06:00,65.2,36.8,30.17,SW,232,3.0,4.0,35,0.00,,,0.00,Wunderground v.1.15,2013-11-11 19:06:00,
2013-11-11 14:07:00,65.2,36.1,30.17,SSW,210,4.0,7.0,34,0.00,,,0.00,Wunderground v.1.15,2013-11-11 19:07:00,
2013-11-11 14:08:00,65.1,36.0,30.17,SSW,207,8.0,9.0,34,0.00,,,0.00,Wunderground v.1.15,2013-11-11 19:08:00,
2013-11-11 14:09:00,65.0,35.9,30.17,SSW,199,6.0,9.0,34,0.00,,,0.00,Wunderground v.1.15,2013-11-11 19:09:00,
2013-11-11 14:11:00,64.6,36.3,30.16,SW,231,1.0,3.0,35,0.00,,,0.00,Wunderground v.1.15,2013-11-11 19:11:00,
2013-11-11 14:13:00,64.7,37.8,30.16,SW,232,2.0,3.0,37,0.00,,,0.00,Wunderground v.1.15,2013-11-11 19:13:00,
2013-11-11 14:14:00,64.7,36.4,30.16,SW,223,3.0,5.0,35,0.00,,,0.00,Wunderground v.1.15,2013-11-11 19:14:00,
2013-11-11 14:15:00,64.9,36.6,30.16,SW,222,3.0,5.0,35,0.00,,,0.00,Wunderground v.1.15,2013-11-11 19:15:00,
2013-11-11 14:16:00,64.9,36.6,30.17,SW,222,1.0,5.0,35,0.00,,,0.00,Wunderground v.1.15,2013-11-11 19:16:00,
2013-11-11 14:17:00,64.9,36.6,30.16,SW,225,1.0,5.0,35,0.00,,,0.00,Wunderground v.1.15,2013-11-11 19:17:00,
2013-11-11 14:19:00,65.0,35.9,30.17,WNW,298,5.0,6.0,34,0.00,,,0.00,Wunderground v.1.15,2013-11-11 19:19:00,
2013-11-11 14:21:00,65.0,35.9,30.16,WNW,285,1.0,3.0,34,0.00,,,0.00,Wunderground v.1.15,2013-11-11 19:21:00,
2013-11-11 14:22:00,65.0,36.7,30.16,WNW,284,1.0,3.0,35,0.00,,,0.00,Wunderground v.1.15,2013-11-11 19:22:00,
2013-11-11 14:24:00,65.0,36.7,30.16,West,263,5.0,5.0,35,0.00,,,0.00,Wunderground v.1.15,2013-11-11 19:24:00,
2013-11-11 14:25:00,65.0,35.9,30.16,West,264,2.0,5.0,34,0.00,,,0.00,Wunderground v.1.15,2013-11-11 19:25:00,
2013-11-11 14:26:00,65.0,35.9,30.16,WSW,244,1.0,7.0,34,0.00,,,0.00,Wunderground v.1.15,2013-11-11 19:26:00,
2013-11-11 14:27:00,65.0,35.9,30.16,SW,236,3.0,7.0,34,0.00,,,0.00,Wunderground v.1.15,2013-11-11 19:27:00,
2013-11-11 14:29:00,65.0,35.9,30.16,West,265,1.0,7.0,34,0.00,,,0.00,Wunderground v.1.15,2013-11-11 19:29:00,
2013-11-11 14:31:00,65.1,36.0,30.16,WSW,245,3.0,4.0,34,0.00,,,0.00,Wunderground v.1.15,2013-11-11 19:31:00,
2013-11-11 14:32:00,65.1,36.0,30.16,WSW,245,2.0,4.0,34,0.00,,,0.00,Wunderground v.1.15,2013-11-11 19:32:00,
2013-11-11 14:33:00,65.2,35.4,30.16,WSW,244,2.0,4.0,33,0.00,,,0.00,Wunderground v.1.15,2013-11-11 19:33:00,
2013-11-11 14:34:00,65.3,36.9,30.16,SSW,208,5.0,5.0,35,0.00,,,0.00,Wunderground v.1.15,2013-11-11 19:34:00,
2013-11-11 14:36:00,65.3,35.4,30.16,SSW,210,7.0,10.0,33,0.00,,,0.00,Wunderground v.1.15,2013-11-11 19:36:00,
2013-11-11 14:37:00,65.2,35.4,30.16,SSW,212,2.0,10.0,33,0.00,,,0.00,Wunderground v.1.15,2013-11-11 19:37:00,
2013-11-11 14:38:00,65.1,35.3,30.16,SSW,212,2.0,10.0,33,0.00,,,0.00,Wunderground v.1.15,2013-11-11 19:38:00,
2013-11-11 14:39:00,65.0,35.9,30.16,SW,214,1.0,10.0,34,0.00,,,0.00,Wunderground v.1.15,2013-11-11 19:39:00,
2013-11-11 14:40:00,65.1,36.0,30.15,WNW,303,3.0,3.0,34,0.00,,,0.00,Wunderground v.1.15,2013-11-11 19:40:00,
2013-11-11 14:42:00,65.1,36.0,30.16,NW,304,2.0,3.0,34,0.00,,,0.00,Wunderground v.1.15,2013-11-11 19:42:00,
2013-11-11 14:43:00,65.2,36.1,30.16,WSW,250,1.0,4.0,34,0.00,,,0.00,Wunderground v.1.15,2013-11-11 19:43:00,
2013-11-11 14:45:00,65.3,36.9,30.15,WSW,258,4.0,5.0,35,0.00,,,0.00,Wunderground v.1.15,2013-11-11 19:45:00,
2013-11-11 14:47:00,65.5,36.4,30.15,West,273,1.0,5.0,34,0.00,,,0.00,Wunderground v.1.15,2013-11-11 19:47:00,
2013-11-11 14:48:00,65.6,36.5,30.15,West,274,1.0,5.0,34,0.00,,,0.00,Wunderground v.1.15,2013-11-11 19:48:00,
2013-11-11 14:51:00,65.8,36.6,30.15,WNW,300,4.0,4.0,34,0.00,,,0.00,Wunderground v.1.15,2013-11-11 19:51:00,
2013-11-11 14:52:00,65.9,36.7,30.15,WNW,300,1.0,5.0,34,0.00,,,0.00,Wunderground v.1.15,2013-11-11 19:52:00,
2013-11-11 14:53:00,65.9,36.7,30.15,WNW,300,1.0,5.0,34,0.00,,,0.00,Wunderground v.1.15,2013-11-11 19:53:00,
2013-11-11 14:54:00,65.9,36.0,30.15,WNW,300,1.0,5.0,33,0.00,,,0.00,Wunderground v.1.15,2013-11-11 19:54:00,
2013-11-11 14:56:00,66.0,36.8,30.15,WNW,296,1.0,5.0,34,0.00,,,0.00,Wunderground v.1.15,2013-11-11 19:56:00,
2013-11-11 14:58:00,66.1,36.9,30.15,SSW,213,4.0,7.0,34,0.00,,,0.00,Wunderground v.1.15,2013-11-11 19:58:00,
2013-11-11 14:59:00,66.1,36.9,30.15,SSW,213,3.0,7.0,34,0.00,,,0.00,Wunderground v.1.15,2013-11-11 19:59:00,
2013-11-11 15:01:00,65.8,36.6,30.15,SSW,202,4.0,5.0,34,0.00,,,0.00,Wunderground v.1.15,2013-11-11 20:01:00,
2013-11-11 15:03:00,65.8,36.6,30.15,SSW,202,2.0,5.0,34,0.00,,,0.00,Wunderground v.1.15,2013-11-11 20:03:00,
2013-11-11 15:04:00,65.8,36.6,30.15,SSW,202,2.0,5.0,34,0.00,,,0.00,Wunderground v.1.15,2013-11-11 20:04:00,
2013-11-11 15:06:00,65.9,36.0,30.15,SW,215,5.0,7.0,33,0.00,,,0.00,Wunderground v.1.15,2013-11-11 20:06:00,
2013-11-11 15:09:00,65.7,35.8,30.15,SW,229,0.0,7.0,33,0.00,,,0.00,Wunderground v.1.15,2013-11-11 20:09:00,
2013-11-11 15:10:00,65.6,36.5,30.15,WNW,303,3.0,3.0,34,0.00,,,0.00,Wunderground v.1.15,2013-11-11 20:10:00,
2013-11-11 15:11:00,65.6,37.2,30.15,WSW,238,3.0,3.0,35,0.00,,,0.00,Wunderground v.1.15,2013-11-11 20:11:00,
2013-11-11 15:14:00,65.7,36.5,30.15,SW,236,2.0,4.0,34,0.00,,,0.00,Wunderground v.1.15,2013-11-11 20:14:00,
2013-11-11 15:15:00,65.8,36.6,30.15,SW,236,2.0,4.0,34,0.00,,,0.00,Wunderground v.1.15,2013-11-11 20:15:00,
2013-11-11 15:17:00,66.0,36.1,30.15,SW,236,3.0,4.0,33,0.00,,,0.00,Wunderground v.1.15,2013-11-11 20:17:00,
2013-11-11 15:19:00,66.0,36.8,30.15,SW,236,0.0,4.0,34,0.00,,,0.00,Wunderground v.1.15,2013-11-11 20:19:00,
2013-11-11 15:20:00,66.1,36.9,30.15,SW,236,2.0,2.0,34,0.00,,,0.00,Wunderground v.1.15,2013-11-11 20:20:00,
2013-11-11 15:21:00,66.1,36.1,30.15,SW,236,0.0,2.0,33,0.00,,,0.00,Wunderground v.1.15,2013-11-11 20:21:00,
2013-11-11 15:22:00,66.1,36.9,30.15,SW,236,0.0,4.0,34,0.00,,,0.00,Wunderground v.1.15,2013-11-11 20:22:00,
2013-11-11 15:24:00,66.2,37.0,30.15,SW,236,0.0,4.0,34,0.00,,,0.00,Wunderground v.1.15,2013-11-11 20:24:00,
2013-11-11 15:26:00,66.3,37.8,30.15,SW,236,1.0,4.0,35,0.00,,,0.00,Wunderground v.1.15,2013-11-11 20:26:00,
2013-11-11 15:27:00,66.3,37.8,30.14,SW,236,2.0,4.0,35,0.00,,,0.00,Wunderground v.1.15,2013-11-11 20:27:00,
2013-11-11 15:29:00,66.3,36.3,30.14,SW,224,4.0,5.0,33,0.00,,,0.00,Wunderground v.1.15,2013-11-11 20:29:00,
2013-11-11 15:31:00,66.2,36.2,30.14,SW,224,2.0,3.0,33,0.00,,,0.00,Wunderground v.1.15,2013-11-11 20:31:00,
2013-11-11 15:32:00,66.2,38.4,30.14,SW,224,1.0,3.0,36,0.00,,,0.00,Wunderground v.1.15,2013-11-11 20:32:00,
2013-11-11 15:33:00,66.2,39.1,30.14,SW,228,5.0,5.0,37,0.00,,,0.00,Wunderground v.1.15,2013-11-11 20:33:00,
2013-11-11 15:35:00,66.1,36.9,30.14,South,188,1.0,5.0,34,0.00,,,0.00,Wunderground v.1.15,2013-11-11 20:35:00,
2013-11-11 15:36:00,66.0,37.5,30.14,South,191,0.0,5.0,35,0.00,,,0.00,Wunderground v.1.15,2013-11-11 20:36:00,
2013-11-11 15:37:00,66.1,37.6,30.14,South,191,2.0,5.0,35,0.00,,,0.00,Wunderground v.1.15,2013-11-11 20:37:00,
2013-11-11 15:38:00,66.1,36.9,30.14,South,191,0.0,5.0,34,0.00,,,0.00,Wunderground v.1.15,2013-11-11 20:38:00,
2013-11-11 15:39:00,66.1,36.1,30.14,South,191,1.0,5.0,33,0.00,,,0.00,Wunderground v.1.15,2013-11-11 20:39:00,
2013-11-11 15:40:00,66.1,35.4,30.14,South,191,1.0,2.0,32,0.00,,,0.00,Wunderground v.1.15,2013-11-11 20:40:00,
2013-11-11 15:42:00,66.1,36.1,30.14,South,191,0.0,4.0,33,0.00,,,0.00,Wunderground v.1.15,2013-11-11 20:42:00,
2013-11-11 15:44:00,66.0,34.5,30.14,SSW,203,1.0,6.0,31,0.00,,,0.00,Wunderground v.1.15,2013-11-11 20:44:00,
2013-11-11 15:45:00,65.9,36.0,30.14,SSW,204,2.0,6.0,33,0.00,,,0.00,Wunderground v.1.15,2013-11-11 20:45:00,
2013-11-11 15:46:00,65.8,35.9,30.14,SSW,202,4.0,6.0,33,0.00,,,0.00,Wunderground v.1.15,2013-11-11 20:46:00,
2013-11-11 15:47:00,65.7,35.8,30.14,SSW,205,6.0,6.0,33,0.00,,,0.00,Wunderground v.1.15,2013-11-11 20:47:00,
2013-11-11 15:50:00,65.5,36.4,30.14,SSW,194,1.0,2.0,34,0.00,,,0.00,Wunderground v.1.15,2013-11-11 20:50:00,
2013-11-11 15:51:00,65.5,36.4,30.14,SSW,194,2.0,4.0,34,0.00,,,0.00,Wunderground v.1.15,2013-11-11 20:51:00,
2013-11-11 15:52:00,65.5,37.1,30.14,SSW,196,1.0,4.0,35,0.00,,,0.00,Wunderground v.1.15,2013-11-11 20:52:00,
2013-11-11 15:53:00,65.5,37.1,30.14,SSW,196,2.0,4.0,35,0.00,,,0.00,Wunderground v.1.15,2013-11-11 20:53:00,
2013-11-11 15:55:00,65.5,36.4,30.14,SSW,196,3.0,4.0,34,0.00,,,0.00,Wunderground v.1.15,2013-11-11 20:55:00,
2013-11-11 15:56:00,65.5,37.1,30.14,SSW,200,4.0,5.0,35,0.00,,,0.00,Wunderground v.1.15,2013-11-11 20:56:00,
2013-11-11 15:57:00,65.4,37.0,30.14,SSW,200,3.0,5.0,35,0.00,,,0.00,Wunderground v.1.15,2013-11-11 20:57:00,
2013-11-11 15:58:00,65.4,36.3,30.13,SSW,210,3.0,5.0,34,0.00,,,0.00,Wunderground v.1.15,2013-11-11 20:58:00,
2013-11-11 16:00:00,65.2,36.1,30.14,SSW,211,2.0,3.0,34,0.00,,,0.00,Wunderground v.1.15,2013-11-11 21:00:00,
2013-11-11 16:01:00,65.2,36.1,30.14,SSW,211,3.0,3.0,34,0.00,,,0.00,Wunderground v.1.15,2013-11-11 21:01:00,
2013-11-11 16:02:00,65.2,35.4,30.14,SSW,211,4.0,4.0,33,0.00,,,0.00,Wunderground v.1.15,2013-11-11 21:02:00,
2013-11-11 16:03:00,65.1,36.0,30.14,SSW,211,1.0,4.0,34,0.00,,,0.00,Wunderground v.1.15,2013-11-11 21:03:00,
2013-11-11 16:05:00,65.1,36.0,30.13,SSW,211,2.0,4.0,34,0.00,,,0.00,Wunderground v.1.15,2013-11-11 21:05:00,
2013-11-11 16:06:00,65.1,36.0,30.13,SSW,211,1.0,4.0,34,0.00,,,0.00,Wunderground v.1.15,2013-11-11 21:06:00,
2013-11-11 16:07:00,65.0,36.7,30.14,SSW,211,1.0,4.0,35,0.00,,,0.00,Wunderground v.1.15,2013-11-11 21:07:00,
2013-11-11 16:09:00,65.0,35.9,30.14,SSW,211,0.0,2.0,34,0.00,,,0.00,Wunderground v.1.15,2013-11-11 21:09:00,
2013-11-11 16:10:00,65.0,36.7,30.13,SSW,211,0.0,2.0,35,0.00,,,0.00,Wunderground v.1.15,2013-11-11 21:10:00,
2013-11-11 16:11:00,65.0,36.7,30.13,SSW,211,0.0,2.0,35,0.00,,,0.00,Wunderground v.1.15,2013-11-11 21:11:00,
2013-11-11 16:12:00,65.1,35.3,30.14,SSW,212,1.0,3.0,33,0.00,,,0.00,Wunderground v.1.15,2013-11-11 21:12:00,
2013-11-11 16:13:00,65.1,37.5,30.14,SSW,211,0.0,3.0,36,0.00,,,0.00,Wunderground v.1.15,2013-11-11 21:13:00,
2013-11-11 16:14:00,65.1,37.5,30.13,SSW,212,2.0,3.0,36,0.00,,,0.00,Wunderground v.1.15,2013-11-11 21:14:00,
2013-11-11 16:15:00,65.0,35.9,30.13,SSW,211,1.0,3.0,34,0.00,,,0.00,Wunderground v.1.15,2013-11-11 21:15:00,
2013-11-11 16:16:00,65.0,35.9,30.13,SSW,212,1.0,3.0,34,0.00,,,0.00,Wunderground v.1.15,2013-11-11 21:16:00,
2013-11-11 16:18:00,64.9,35.8,30.13,SSW,212,1.0,3.0,34,0.00,,,0.00,Wunderground v.1.15,2013-11-11 21:18:00,
2013-11-11 16:19:00,64.9,36.6,30.13,SSW,212,0.0,3.0,35,0.00,,,0.00,Wunderground v.1.15,2013-11-11 21:19:00,
2013-11-11 16:20:00,64.9,37.3,30.14,SSW,211,0.0,2.0,36,0.00,,,0.00,Wunderground v.1.15,2013-11-11 21:20:00,
2013-11-11 16:21:00,64.9,37.3,30.13,SSW,212,0.0,2.0,36,0.00,,,0.00,Wunderground v.1.15,2013-11-11 21:21:00,
2013-11-11 16:23:00,64.9,36.6,30.13,SSW,212,0.0,2.0,35,0.00,,,0.00,Wunderground v.1.15,2013-11-11 21:23:00,
2013-11-11 16:24:00,64.8,35.8,30.13,SSW,210,1.0,2.0,34,0.00,,,0.00,Wunderground v.1.15,2013-11-11 21:24:00,
2013-11-11 16:26:00,64.8,36.5,30.13,SSW,211,0.0,2.0,35,0.00,,,0.00,Wunderground v.1.15,2013-11-11 21:26:00,
2013-11-11 16:28:00,64.7,35.7,30.13,SW,216,1.0,4.0,34,0.00,,,0.00,Wunderground v.1.15,2013-11-11 21:28:00,
2013-11-11 16:29:00,64.6,37.0,30.14,SW,216,1.0,4.0,36,0.00,,,0.00,Wunderground v.1.15,2013-11-11 21:29:00,
2013-11-11 16:31:00,64.5,36.2,30.13,SW,215,0.0,1.0,35,0.00,,,0.00,Wunderground v.1.15,2013-11-11 21:31:00,
2013-11-11 16:33:00,64.4,36.1,30.13,SW,217,4.0,4.0,35,0.00,,,0.00,Wunderground v.1.15,2013-11-11 21:33:00,
2013-11-11 16:35:00,64.2,36.0,30.13,SW,217,1.0,4.0,35,0.00,,,0.00,Wunderground v.1.15,2013-11-11 21:35:00,
2013-11-11 16:36:00,64.1,36.6,30.13,SW,217,0.0,4.0,36,0.00,,,0.00,Wunderground v.1.15,2013-11-11 21:36:00,
2013-11-11 16:39:00,64.0,36.5,30.13,SW,217,1.0,4.0,36,0.00,,,0.00,Wunderground v.1.15,2013-11-11 21:39:00,
2013-11-11 16:40:00,63.8,35.6,30.13,SSW,206,7.0,7.0,35,0.00,,,0.00,Wunderground v.1.15,2013-11-11 21:40:00,
2013-11-11 16:41:00,63.7,34.8,30.13,SSW,209,0.0,8.0,34,0.00,,,0.00,Wunderground v.1.15,2013-11-11 21:41:00,
2013-11-11 16:42:00,63.7,34.8,30.13,SSW,209,0.0,8.0,34,0.00,,,0.00,Wunderground v.1.15,2013-11-11 21:42:00,
2013-11-11 16:44:00,63.6,36.1,30.13,SSW,207,2.0,8.0,36,0.00,,,0.00,Wunderground v.1.15,2013-11-11 21:44:00,
2013-11-11 16:45:00,63.5,36.0,30.13,SSW,207,0.0,8.0,36,0.00,,,0.00,Wunderground v.1.15,2013-11-11 21:45:00,
2013-11-11 16:46:00,63.5,37.4,30.13,SSW,208,0.0,8.0,38,0.00,,,0.00,Wunderground v.1.15,2013-11-11 21:46:00,
2013-11-11 16:47:00,63.5,37.4,30.13,SSW,207,0.0,8.0,38,0.00,,,0.00,Wunderground v.1.15,2013-11-11 21:47:00,
2013-11-11 16:49:00,63.3,36.6,30.13,SSW,208,0.0,8.0,37,0.00,,,0.00,Wunderground v.1.15,2013-11-11 21:49:00,
2013-11-11 16:50:00,63.3,36.6,30.13,SSW,208,0.0,1.0,37,0.00,,,0.00,Wunderground v.1.15,2013-11-11 21:50:00,
2013-11-11 16:52:00,63.2,37.2,30.13,SSW,208,0.0,1.0,38,0.00,,,0.00,Wunderground v.1.15,2013-11-11 21:52:00,
2013-11-11 16:53:00,63.1,37.1,30.13,SSW,208,0.0,1.0,38,0.00,,,0.00,Wunderground v.1.15,2013-11-11 21:53:00,
2013-11-11 16:55:00,62.9,36.9,30.13,SSW,207,0.0,1.0,38,0.00,,,0.00,Wunderground v.1.15,2013-11-11 21:55:00,
2013-11-11 16:56:00,62.9,36.9,30.13,SSW,208,0.0,1.0,38,0.00,,,0.00,Wunderground v.1.15,2013-11-11 21:56:00,
2013-11-11 16:57:00,62.8,36.8,30.13,SSW,208,0.0,1.0,38,0.00,,,0.00,Wunderground v.1.15,2013-11-11 21:57:00,
2013-11-11 16:58:00,62.8,36.8,30.13,SSW,208,0.0,1.0,38,0.00,,,0.00,Wunderground v.1.15,2013-11-11 21:58:00,
2013-11-11 17:00:00,62.6,37.3,30.13,SSW,208,0.0,0.0,39,0.00,,,0.00,Wunderground v.1.15,2013-11-11 22:00:00,
2013-11-11 17:01:00,62.5,37.2,30.13,SSW,208,0.0,0.0,39,0.00,,,0.00,Wunderground v.1.15,2013-11-11 22:01:00,
2013-11-11 17:02:00,62.4,37.1,30.13,SSW,208,0.0,1.0,39,0.00,,,0.00,Wunderground v.1.15,2013-11-11 22:02:00,
2013-11-11 17:03:00,62.3,37.0,30.13,SSW,207,0.0,1.0,39,0.00,,,0.00,Wunderground v.1.15,2013-11-11 22:03:00,
2013-11-11 17:04:00,62.2,36.9,30.13,SSW,208,0.0,1.0,39,0.00,,,0.00,Wunderground v.1.15,2013-11-11 22:04:00,
2013-11-11 17:05:00,62.1,36.8,30.13,SSW,208,0.0,1.0,39,0.00,,,0.00,Wunderground v.1.15,2013-11-11 22:05:00,
2013-11-11 17:06:00,62.1,36.8,30.13,SSW,208,0.0,1.0,39,0.00,,,0.00,Wunderground v.1.15,2013-11-11 22:06:00,
2013-11-11 17:07:00,62.0,36.7,30.13,SSW,208,0.0,1.0,39,0.00,,,0.00,Wunderground v.1.15,2013-11-11 22:07:00,
2013-11-11 17:09:00,61.8,36.6,30.13,SSW,208,0.0,1.0,39,0.00,,,0.00,Wunderground v.1.15,2013-11-11 22:09:00,
2013-11-11 17:10:00,61.7,36.5,30.13,SSW,207,0.0,0.0,39,0.00,,,0.00,Wunderground v.1.15,2013-11-11 22:10:00,
2013-11-11 17:11:00,61.7,36.5,30.13,SSW,207,0.0,0.0,39,0.00,,,0.00,Wunderground v.1.15,2013-11-11 22:11:00,
2013-11-11 17:12:00,61.6,37.0,30.13,SSW,208,0.0,0.0,40,0.00,,,0.00,Wunderground v.1.15,2013-11-11 22:12:00,
2013-11-11 17:15:00,61.4,36.2,30.13,SSW,207,0.0,0.0,39,0.00,,,0.00,Wunderground v.1.15,2013-11-11 22:15:00,
2013-11-11 17:16:00,61.3,36.1,30.13,SSW,207,0.0,0.0,39,0.00,,,0.00,Wunderground v.1.15,2013-11-11 22:16:00,
2013-11-11 17:17:00,61.3,36.1,30.13,SSW,207,0.0,0.0,39,0.00,,,0.00,Wunderground v.1.15,2013-11-11 22:17:00,
2013-11-11 17:20:00,61.1,35.3,30.13,SSW,207,0.0,0.0,38,0.00,,,0.00,Wunderground v.1.15,2013-11-11 22:20:00,
2013-11-11 17:21:00,61.0,35.8,30.13,SSW,208,0.0,1.0,39,0.00,,,0.00,Wunderground v.1.15,2013-11-11 22:21:00,
2013-11-11 17:22:00,60.9,35.8,30.13,SSW,207,0.0,1.0,39,0.00,,,0.00,Wunderground v.1.15,2013-11-11 22:22:00,
2013-11-11 17:23:00,60.9,35.8,30.13,SSW,208,0.0,1.0,39,0.00,,,0.00,Wunderground v.1.15,2013-11-11 22:23:00,
2013-11-11 17:25:00,60.7,35.6,30.13,SSW,207,0.0,1.0,39,0.00,,,0.00,Wunderground v.1.15,2013-11-11 22:25:00,
2013-11-11 17:26:00,60.7,35.6,30.13,SSW,208,0.0,1.0,39,0.00,,,0.00,Wunderground v.1.15,2013-11-11 22:26:00,
2013-11-11 17:27:00,60.6,36.1,30.13,SSW,207,0.0,1.0,40,0.00,,,0.00,Wunderground v.1.15,2013-11-11 22:27:00,
2013-11-11 17:28:00,60.5,36.0,30.13,SSW,207,0.0,1.0,40,0.00,,,0.00,Wunderground v.1.15,2013-11-11 22:28:00,
2013-11-11 17:30:00,60.3,35.2,30.12,SSW,208,0.0,0.0,39,0.00,,,0.00,Wunderground v.1.15,2013-11-11 22:30:00,
2013-11-11 17:31:00,60.2,35.1,30.13,SSW,207,0.0,0.0,39,0.00,,,0.00,Wunderground v.1.15,2013-11-11 22:31:00,
2013-11-11 17:33:00,60.0,35.0,30.13,SSW,207,0.0,0.0,39,0.00,,,0.00,Wunderground v.1.15,2013-11-11 22:33:00,
2013-11-11 17:35:00,59.8,35.4,30.13,SSW,207,0.0,0.0,40,0.00,,,0.00,Wunderground v.1.15,2013-11-11 22:35:00,
2013-11-11 17:36:00,59.8,35.4,30.13,SSW,208,0.0,0.0,40,0.00,,,0.00,Wunderground v.1.15,2013-11-11 22:36:00,
2013-11-11 17:38:00,59.5,35.1,30.13,SSW,208,0.0,0.0,40,0.00,,,0.00,Wunderground v.1.15,2013-11-11 22:38:00,
2013-11-11 17:39:00,59.4,35.1,30.13,SSW,208,0.0,0.0,40,0.00,,,0.00,Wunderground v.1.15,2013-11-11 22:39:00,
2013-11-11 17:41:00,59.1,34.8,30.13,SSW,207,0.0,0.0,40,0.00,,,0.00,Wunderground v.1.15,2013-11-11 22:41:00,
2013-11-11 17:42:00,59.0,34.7,30.13,SSW,208,0.0,0.0,40,0.00,,,0.00,Wunderground v.1.15,2013-11-11 22:42:00,
2013-11-11 17:43:00,59.0,35.3,30.13,SSW,207,0.0,0.0,41,0.00,,,0.00,Wunderground v.1.15,2013-11-11 22:43:00,
2013-11-11 17:44:00,59.0,35.3,30.13,SSW,208,0.0,0.0,41,0.00,,,0.00,Wunderground v.1.15,2013-11-11 22:44:00,
2013-11-11 17:47:00,58.8,35.1,30.13,SSW,208,0.0,0.0,41,0.00,,,0.00,Wunderground v.1.15,2013-11-11 22:47:00,
2013-11-11 17:48:00,58.6,35.0,30.13,SSW,207,0.0,0.0,41,0.00,,,0.00,Wunderground v.1.15,2013-11-11 22:48:00,
2013-11-11 17:50:00,58.5,34.9,30.13,SSW,208,0.0,0.0,41,0.00,,,0.00,Wunderground v.1.15,2013-11-11 22:50:00,
2013-11-11 17:52:00,58.3,34.7,30.13,SSW,207,0.0,1.0,41,0.00,,,0.00,Wunderground v.1.15,2013-11-11 22:52:00,
2013-11-11 17:53:00,58.3,34.7,30.13,SSW,208,0.0,1.0,41,0.00,,,0.00,Wunderground v.1.15,2013-11-11 22:53:00,
2013-11-11 17:54:00,58.2,35.2,30.13,SSW,207,0.0,1.0,42,0.00,,,0.00,Wunderground v.1.15,2013-11-11 22:54:00,
2013-11-11 17:55:00,58.2,35.2,30.13,SSW,208,0.0,1.0,42,0.00,,,0.00,Wunderground v.1.15,2013-11-11 22:55:00,
2013-11-11 17:57:00,58.1,34.5,30.13,SSW,207,0.0,1.0,41,0.00,,,0.00,Wunderground v.1.15,2013-11-11 22:57:00,
2013-11-11 17:58:00,58.1,35.1,30.13,SSW,208,0.0,1.0,42,0.00,,,0.00,Wunderground v.1.15,2013-11-11 22:58:00,
2013-11-11 17:59:00,58.0,35.0,30.13,SSW,208,0.0,1.0,42,0.00,,,0.00,Wunderground v.1.15,2013-11-11 22:59:00,
2013-11-11 18:00:00,58.0,35.0,30.13,SSW,208,0.0,0.0,42,0.00,,,0.00,Wunderground v.1.15,2013-11-11 23:00:00,
2013-11-11 18:02:00,57.9,34.9,30.13,SSW,208,0.0,0.0,42,0.00,,,0.00,Wunderground v.1.15,2013-11-11 23:02:00,
2013-11-11 18:04:00,57.8,34.8,30.13,SSW,208,0.0,0.0,42,0.00,,,0.00,Wunderground v.1.15,2013-11-11 23:04:00,
2013-11-11 18:05:00,57.7,34.7,30.13,SSW,208,0.0,0.0,42,0.00,,,0.00,Wunderground v.1.15,2013-11-11 23:05:00,
2013-11-11 18:06:00,57.7,34.7,30.13,SSW,207,0.0,0.0,42,0.00,,,0.00,Wunderground v.1.15,2013-11-11 23:06:00,
2013-11-11 18:09:00,57.4,35.6,30.13,SSW,208,0.0,0.0,44,0.00,,,0.00,Wunderground v.1.15,2013-11-11 23:09:00,
2013-11-11 18:10:00,57.3,35.0,30.13,SSW,207,0.0,0.0,43,0.00,,,0.00,Wunderground v.1.15,2013-11-11 23:10:00,
2013-11-11 18:11:00,57.3,35.0,30.13,SSW,207,0.0,0.0,43,0.00,,,0.00,Wunderground v.1.15,2013-11-11 23:11:00,
2013-11-11 18:14:00,56.9,36.3,30.14,SSW,207,0.0,0.0,46,0.00,,,0.00,Wunderground v.1.15,2013-11-11 23:14:00,
2013-11-11 18:15:00,56.8,36.8,30.14,SSW,207,0.0,0.0,47,0.00,,,0.00,Wunderground v.1.15,2013-11-11 23:15:00,
2013-11-11 18:16:00,56.8,36.8,30.14,SSW,207,0.0,0.0,47,0.00,,,0.00,Wunderground v.1.15,2013-11-11 23:16:00,
2013-11-11 18:17:00,56.6,36.6,30.14,SSW,208,0.0,0.0,47,0.00,,,0.00,Wunderground v.1.15,2013-11-11 23:17:00,
2013-11-11 18:19:00,56.4,36.9,30.13,SSW,208,0.0,0.0,48,0.00,,,0.00,Wunderground v.1.15,2013-11-11 23:19:00,
2013-11-11 18:21:00,56.2,36.8,30.13,SSW,208,0.0,0.0,48,0.00,,,0.00,Wunderground v.1.15,2013-11-11 23:21:00,
2013-11-11 18:22:00,56.1,36.7,30.13,SSW,208,0.0,0.0,48,0.00,,,0.00,Wunderground v.1.15,2013-11-11 23:22:00,
2013-11-11 18:24:00,55.8,36.4,30.13,SSW,208,0.0,0.0,48,0.00,,,0.00,Wunderground v.1.15,2013-11-11 23:24:00,
2013-11-11 18:25:00,55.7,36.3,30.13,SSW,207,0.0,0.0,48,0.00,,,0.00,Wunderground v.1.15,2013-11-11 23:25:00,
2013-11-11 18:26:00,55.6,36.7,30.13,SSW,208,0.0,0.0,49,0.00,,,0.00,Wunderground v.1.15,2013-11-11 23:26:00,
2013-11-11 18:27:00,55.5,36.6,30.13,SSW,208,0.0,0.0,49,0.00,,,0.00,Wunderground v.1.15,2013-11-11 23:27:00,
2013-11-11 18:30:00,55.3,35.9,30.13,SSW,208,0.0,0.0,48,0.00,,,0.00,Wunderground v.1.15,2013-11-11 23:30:00,
2013-11-11 18:31:00,55.1,36.8,30.14,SSW,208,0.0,0.0,50,0.00,,,0.00,Wunderground v.1.15,2013-11-11 23:31:00,
2013-11-11 18:32:00,55.1,36.8,30.14,SSW,208,0.0,0.0,50,0.00,,,0.00,Wunderground v.1.15,2013-11-11 23:32:00,
2013-11-11 18:35:00,54.9,36.6,30.13,SSW,208,0.0,0.0,50,0.00,,,0.00,Wunderground v.1.15,2013-11-11 23:35:00,
2013-11-11 18:36:00,54.8,36.5,30.13,SSW,208,0.0,0.0,50,0.00,,,0.00,Wunderground v.1.15,2013-11-11 23:36:00,
2013-11-11 18:37:00,54.6,36.8,30.13,SSW,208,0.0,0.0,51,0.00,,,0.00,Wunderground v.1.15,2013-11-11 23:37:00,
2013-11-11 18:38:00,54.5,36.7,30.13,SSW,208,0.0,0.0,51,0.00,,,0.00,Wunderground v.1.15,2013-11-11 23:38:00,
2013-11-11 18:40:00,54.4,36.6,30.13,SSW,207,0.0,0.0,51,0.00,,,0.00,Wunderground v.1.15,2013-11-11 23:40:00,
2013-11-11 18:41:00,54.3,36.5,30.13,SSW,207,0.0,0.0,51,0.00,,,0.00,Wunderground v.1.15,2013-11-11 23:41:00,
2013-11-11 18:42:00,54.3,36.5,30.13,SSW,208,0.0,0.0,51,0.00,,,0.00,Wunderground v.1.15,2013-11-11 23:42:00,
2013-11-11 18:43:00,54.2,36.5,30.13,SSW,208,0.0,0.0,51,0.00,,,0.00,Wunderground v.1.15,2013-11-11 23:43:00,
2013-11-11 18:45:00,54.1,35.9,30.13,SSW,207,0.0,1.0,50,0.00,,,0.00,Wunderground v.1.15,2013-11-11 23:45:00,
2013-11-11 18:46:00,54.1,35.9,30.13,SSW,208,2.0,2.0,50,0.00,,,0.00,Wunderground v.1.15,2013-11-11 23:46:00,
2013-11-11 18:48:00,54.0,35.8,30.13,SSW,207,1.0,2.0,50,0.00,,,0.00,Wunderground v.1.15,2013-11-11 23:48:00,
2013-11-11 18:49:00,54.0,36.3,30.13,SSW,208,1.0,2.0,51,0.00,,,0.00,Wunderground v.1.15,2013-11-11 23:49:00,
2013-11-11 18:50:00,54.0,36.3,30.14,SSW,208,0.0,1.0,51,0.00,,,0.00,Wunderground v.1.15,2013-11-11 23:50:00,
2013-11-11 18:51:00,53.9,36.2,30.13,SSW,208,0.0,1.0,51,0.00,,,0.00,Wunderground v.1.15,2013-11-11 23:51:00,
2013-11-11 18:54:00,53.8,36.1,30.13,SSW,207,0.0,1.0,51,0.00,,,0.00,Wunderground v.1.15,2013-11-11 23:54:00,
2013-11-11 18:55:00,53.8,36.1,30.14,SSW,207,0.0,1.0,51,0.00,,,0.00,Wunderground v.1.15,2013-11-11 23:55:00,
2013-11-11 18:57:00,53.7,35.5,30.14,SSW,208,0.0,1.0,50,0.00,,,0.00,Wunderground v.1.15,2013-11-11 23:57:00,
2013-11-11 18:59:00,53.6,35.4,30.13,SSW,208,0.0,1.0,50,0.00,,,0.00,Wunderground v.1.15,2013-11-11 23:59:00,
2013-11-11 19:00:00,53.6,35.4,30.13,SSW,208,1.0,1.0,50,0.00,,,0.00,Wunderground v.1.15,2013-11-12 00:00:00,
2013-11-11 19:01:00,53.6,35.4,30.13,SSW,208,1.0,1.0,50,0.00,,,0.00,Wunderground v.1.15,2013-11-12 00:01:00,
2013-11-11 19:03:00,53.5,35.8,30.13,SSW,208,0.0,1.0,51,0.00,,,0.00,Wunderground v.1.15,2013-11-12 00:03:00,
2013-11-11 19:04:00,53.4,35.2,30.13,SSW,207,0.0,1.0,50,0.00,,,0.00,Wunderground v.1.15,2013-11-12 00:04:00,
2013-11-11 19:05:00,53.3,35.6,30.13,SSW,207,1.0,1.0,51,0.00,,,0.00,Wunderground v.1.15,2013-11-12 00:05:00,
2013-11-11 19:06:00,53.3,35.6,30.13,SSW,207,2.0,2.0,51,0.00,,,0.00,Wunderground v.1.15,2013-11-12 00:06:00,
2013-11-11 19:08:00,53.2,35.5,30.13,SSW,208,2.0,3.0,51,0.00,,,0.00,Wunderground v.1.15,2013-11-12 00:08:00,
2013-11-11 19:09:00,53.1,35.4,30.13,SSW,208,3.0,3.0,51,0.00,,,0.00,Wunderground v.1.15,2013-11-12 00:09:00,
2013-11-11 19:10:00,53.0,35.3,30.13,SSW,208,2.0,3.0,51,0.00,,,0.00,Wunderground v.1.15,2013-11-12 00:10:00,
2013-11-11 19:11:00,53.0,35.3,30.13,SSW,208,2.0,3.0,51,0.00,,,0.00,Wunderground v.1.15,2013-11-12 00:11:00,
2013-11-11 19:12:00,52.9,35.2,30.13,SSW,208,2.0,3.0,51,0.00,,,0.00,Wunderground v.1.15,2013-11-12 00:12:00,
2013-11-11 19:13:00,52.8,35.2,30.13,SSW,208,1.0,3.0,51,0.00,,,0.00,Wunderground v.1.15,2013-11-12 00:13:00,
2013-11-11 19:15:00,52.8,35.2,30.13,SSW,208,1.0,3.0,51,0.00,,,0.00,Wunderground v.1.15,2013-11-12 00:15:00,
2013-11-11 19:16:00,52.8,35.2,30.13,SSW,208,1.0,3.0,51,0.00,,,0.00,Wunderground v.1.15,2013-11-12 00:16:00,
2013-11-11 19:17:00,52.8,35.2,30.13,SSW,208,0.0,3.0,51,0.00,,,0.00,Wunderground v.1.15,2013-11-12 00:17:00,
2013-11-11 19:18:00,52.7,35.1,30.13,SSW,207,1.0,3.0,51,0.00,,,0.00,Wunderground v.1.15,2013-11-12 00:18:00,
2013-11-11 19:20:00,52.7,35.1,30.14,SSW,208,0.0,1.0,51,0.00,,,0.00,Wunderground v.1.15,2013-11-12 00:20:00,
2013-11-11 19:21:00,52.7,35.1,30.13,SSW,208,0.0,1.0,51,0.00,,,0.00,Wunderground v.1.15,2013-11-12 00:21:00,
2013-11-11 19:22:00,52.7,35.1,30.14,SSW,207,0.0,1.0,51,0.00,,,0.00,Wunderground v.1.15,2013-11-12 00:22:00,
2013-11-11 19:24:00,52.6,35.0,30.13,SSW,208,0.0,1.0,51,0.00,,,0.00,Wunderground v.1.15,2013-11-12 00:24:00,
2013-11-11 19:26:00,52.6,35.0,30.13,SSW,208,0.0,1.0,51,0.00,,,0.00,Wunderground v.1.15,2013-11-12 00:26:00,
2013-11-11 19:27:00,52.4,35.3,30.13,SSW,207,0.0,1.0,52,0.00,,,0.00,Wunderground v.1.15,2013-11-12 00:27:00,
2013-11-11 19:29:00,52.4,35.3,30.13,SSW,208,0.0,1.0,52,0.00,,,0.00,Wunderground v.1.15,2013-11-12 00:29:00,
2013-11-11 19:30:00,52.3,34.7,30.13,SSW,208,0.0,0.0,51,0.00,,,0.00,Wunderground v.1.15,2013-11-12 00:30:00,
2013-11-11 19:31:00,52.1,35.0,30.13,SSW,208,1.0,1.0,52,0.00,,,0.00,Wunderground v.1.15,2013-11-12 00:31:00,
2013-11-11 19:32:00,52.1,34.5,30.13,SSW,207,1.0,1.0,51,0.00,,,0.00,Wunderground v.1.15,2013-11-12 00:32:00,
2013-11-11 19:33:00,52.1,35.0,30.13,SSW,208,1.0,2.0,52,0.00,,,0.00,Wunderground v.1.15,2013-11-12 00:33:00,
2013-11-11 19:34:00,51.9,34.8,30.13,SSW,208,0.0,2.0,52,0.00,,,0.00,Wunderground v.1.15,2013-11-12 00:34:00,
2013-11-11 19:35:00,51.9,34.8,30.13,SSW,207,1.0,2.0,52,0.00,,,0.00,Wunderground v.1.15,2013-11-12 00:35:00,
2013-11-11 19:37:00,51.8,34.2,30.13,SSW,207,0.0,2.0,51,0.00,,,0.00,Wunderground v.1.15,2013-11-12 00:37:00,
2013-11-11 19:38:00,51.8,34.2,30.13,SSW,207,0.0,2.0,51,0.00,,,0.00,Wunderground v.1.15,2013-11-12 00:38:00,
2013-11-11 19:40:00,51.8,34.2,30.13,SSW,208,1.0,1.0,51,0.00,,,0.00,Wunderground v.1.15,2013-11-12 00:40:00,
2013-11-11 19:42:00,51.8,34.2,30.13,SSW,207,1.0,1.0,51,0.00,,,0.00,Wunderground v.1.15,2013-11-12 00:42:00,
2013-11-11 19:43:00,51.9,33.8,30.13,SSW,208,1.0,2.0,50,0.00,,,0.00,Wunderground v.1.15,2013-11-12 00:43:00,
2013-11-11 19:45:00,52.0,33.9,30.13,SSW,208,1.0,2.0,50,0.00,,,0.00,Wunderground v.1.15,2013-11-12 00:45:00,
2013-11-11 19:46:00,52.0,34.4,30.13,SSW,208,0.0,2.0,51,0.00,,,0.00,Wunderground v.1.15,2013-11-12 00:46:00,
2013-11-11 19:47:00,52.1,34.5,30.13,SSW,208,1.0,2.0,51,0.00,,,0.00,Wunderground v.1.15,2013-11-12 00:47:00,
2013-11-11 19:48:00,52.2,34.6,30.13,SSW,208,2.0,2.0,51,0.00,,,0.00,Wunderground v.1.15,2013-11-12 00:48:00,
2013-11-11 19:50:00,52.2,34.6,30.13,SSW,207,1.0,2.0,51,0.00,,,0.00,Wunderground v.1.15,2013-11-12 00:50:00,
2013-11-11 19:51:00,52.2,34.6,30.13,SSW,208,1.0,2.0,51,0.00,,,0.00,Wunderground v.1.15,2013-11-12 00:51:00,
2013-11-11 19:53:00,52.2,34.1,30.13,SSW,207,0.0,2.0,50,0.00,,,0.00,Wunderground v.1.15,2013-11-12 00:53:00,
2013-11-11 19:54:00,52.2,34.1,30.13,SSW,208,0.0,2.0,50,0.00,,,0.00,Wunderground v.1.15,2013-11-12 00:54:00,
2013-11-11 19:56:00,52.2,35.6,30.13,SSW,208,0.0,2.0,53,0.00,,,0.00,Wunderground v.1.15,2013-11-12 00:56:00,
2013-11-11 19:57:00,52.1,35.5,30.13,SSW,207,0.0,2.0,53,0.00,,,0.00,Wunderground v.1.15,2013-11-12 00:57:00,
2013-11-11 19:58:00,52.0,35.9,30.14,SSW,208,0.0,2.0,54,0.00,,,0.00,Wunderground v.1.15,2013-11-12 00:58:00,
2013-11-11 20:00:00,51.7,36.5,30.14,SSW,207,0.0,0.0,56,0.00,,,0.00,Wunderground v.1.15,2013-11-12 01:00:00,
2013-11-11 20:02:00,51.3,36.1,30.14,SSW,208,0.0,1.0,56,0.00,,,0.00,Wunderground v.1.15,2013-11-12 01:02:00,
2013-11-11 20:03:00,50.9,36.2,30.14,SSW,207,0.0,1.0,57,0.00,,,0.00,Wunderground v.1.15,2013-11-12 01:03:00,
2013-11-11 20:05:00,50.4,36.2,30.14,SSW,208,0.0,1.0,58,0.00,,,0.00,Wunderground v.1.15,2013-11-12 01:05:00,
2013-11-11 20:07:00,50.0,35.8,30.13,SSW,208,0.0,1.0,58,0.00,,,0.00,Wunderground v.1.15,2013-11-12 01:07:00,
2013-11-11 20:08:00,49.6,35.4,30.13,SSW,208,0.0,1.0,58,0.00,,,0.00,Wunderground v.1.15,2013-11-12 01:08:00,
2013-11-11 20:09:00,49.5,35.3,30.13,SSW,208,0.0,1.0,58,0.00,,,0.00,Wunderground v.1.15,2013-11-12 01:09:00,
2013-11-11 20:11:00,49.2,35.5,30.13,SSW,208,0.0,0.0,59,0.00,,,0.00,Wunderground v.1.15,2013-11-12 01:11:00,
2013-11-11 20:12:00,48.9,35.2,30.14,SSW,208,0.0,1.0,59,0.00,,,0.00,Wunderground v.1.15,2013-11-12 01:12:00,
2013-11-11 20:13:00,48.9,35.2,30.14,SSW,208,0.0,1.0,59,0.00,,,0.00,Wunderground v.1.15,2013-11-12 01:13:00,
2013-11-11 20:14:00,48.8,35.1,30.14,SSW,207,0.0,1.0,59,0.00,,,0.00,Wunderground v.1.15,2013-11-12 01:14:00,
2013-11-11 20:16:00,48.6,35.3,30.14,SSW,208,0.0,1.0,60,0.00,,,0.00,Wunderground v.1.15,2013-11-12 01:16:00,
2013-11-11 20:18:00,48.5,35.2,30.13,SSW,208,0.0,1.0,60,0.00,,,0.00,Wunderground v.1.15,2013-11-12 01:18:00,
2013-11-11 20:19:00,48.5,35.2,30.14,SSW,208,0.0,1.0,60,0.00,,,0.00,Wunderground v.1.15,2013-11-12 01:19:00,
2013-11-11 20:20:00,48.4,35.1,30.13,SSW,207,0.0,0.0,60,0.00,,,0.00,Wunderground v.1.15,2013-11-12 01:20:00,
2013-11-11 20:21:00,48.3,35.0,30.13,SSW,208,0.0,0.0,60,0.00,,,0.00,Wunderground v.1.15,2013-11-12 01:21:00,
2013-11-11 20:23:00,48.3,34.6,30.14,SSW,208,0.0,0.0,59,0.00,,,0.00,Wunderground v.1.15,2013-11-12 01:23:00,
2013-11-11 20:24:00,48.3,34.6,30.14,SSW,208,0.0,0.0,59,0.00,,,0.00,Wunderground v.1.15,2013-11-12 01:24:00,
2013-11-11 20:26:00,48.3,35.0,30.14,SSW,208,0.0,0.0,60,0.00,,,0.00,Wunderground v.1.15,2013-11-12 01:26:00,
2013-11-11 20:28:00,48.3,35.0,30.14,SSW,207,0.0,0.0,60,0.00,,,0.00,Wunderground v.1.15,2013-11-12 01:28:00,
2013-11-11 20:29:00,48.3,35.0,30.14,SSW,207,0.0,0.0,60,0.00,,,0.00,Wunderground v.1.15,2013-11-12 01:29:00,
2013-11-11 20:31:00,48.3,35.0,30.14,SSW,208,1.0,1.0,60,0.00,,,0.00,Wunderground v.1.15,2013-11-12 01:31:00,
2013-11-11 20:32:00,48.3,35.0,30.14,SSW,207,0.0,1.0,60,0.00,,,0.00,Wunderground v.1.15,2013-11-12 01:32:00,
2013-11-11 20:33:00,48.2,35.4,30.14,SSW,207,0.0,1.0,61,0.00,,,0.00,Wunderground v.1.15,2013-11-12 01:33:00,
2013-11-11 20:34:00,48.2,35.4,30.14,SSW,208,0.0,1.0,61,0.00,,,0.00,Wunderground v.1.15,2013-11-12 01:34:00,
2013-11-11 20:37:00,48.1,36.1,30.14,SSW,208,0.0,1.0,63,0.00,,,0.00,Wunderground v.1.15,2013-11-12 01:37:00,
2013-11-11 20:38:00,48.0,35.6,30.14,SSW,208,0.0,1.0,62,0.00,,,0.00,Wunderground v.1.15,2013-11-12 01:38:00,
2013-11-11 20:39:00,47.9,35.9,30.14,SSW,207,0.0,1.0,63,0.00,,,0.00,Wunderground v.1.15,2013-11-12 01:39:00,
2013-11-11 20:42:00,47.7,35.3,30.14,SSW,208,0.0,1.0,62,0.00,,,0.00,Wunderground v.1.15,2013-11-12 01:42:00,
2013-11-11 20:43:00,47.7,35.3,30.14,SSW,208,0.0,1.0,62,0.00,,,0.00,Wunderground v.1.15,2013-11-12 01:43:00,
2013-11-11 20:44:00,47.7,35.3,30.14,SSW,207,0.0,1.0,62,0.00,,,0.00,Wunderground v.1.15,2013-11-12 01:44:00,
2013-11-11 20:47:00,47.6,35.6,30.14,SSW,208,0.0,1.0,63,0.00,,,0.00,Wunderground v.1.15,2013-11-12 01:47:00,
2013-11-11 20:48:00,47.6,35.2,30.14,SSW,207,1.0,1.0,62,0.00,,,0.00,Wunderground v.1.15,2013-11-12 01:48:00,
2013-11-11 20:49:00,47.6,35.2,30.14,SSW,207,0.0,1.0,62,0.00,,,0.00,Wunderground v.1.15,2013-11-12 01:49:00,
2013-11-11 20:50:00,47.6,35.2,30.14,SSW,208,0.0,0.0,62,0.00,,,0.00,Wunderground v.1.15,2013-11-12 01:50:00,
2013-11-11 20:53:00,47.6,35.6,30.14,SSW,208,0.0,0.0,63,0.00,,,0.00,Wunderground v.1.15,2013-11-12 01:53:00,
2013-11-11 20:54:00,47.6,35.2,30.14,SSW,208,0.0,0.0,62,0.00,,,0.00,Wunderground v.1.15,2013-11-12 01:54:00,
2013-11-11 20:55:00,47.6,35.6,30.14,SSW,208,0.0,0.0,63,0.00,,,0.00,Wunderground v.1.15,2013-11-12 01:55:00,
2013-11-11 20:58:00,47.6,35.2,30.14,SSW,207,0.0,1.0,62,0.00,,,0.00,Wunderground v.1.15,2013-11-12 01:58:00,
2013-11-11 20:59:00,47.6,35.2,30.14,SSW,207,1.0,1.0,62,0.00,,,0.00,Wunderground v.1.15,2013-11-12 01:59:00,
2013-11-11 21:00:00,47.6,35.2,30.14,SSW,208,1.0,2.0,62,0.00,,,0.00,Wunderground v.1.15,2013-11-12 02:00:00,
2013-11-11 21:03:00,47.7,34.9,30.14,SSW,208,0.0,2.0,61,0.00,,,0.00,Wunderground v.1.15,2013-11-12 02:03:00,
2013-11-11 21:05:00,47.7,34.9,30.14,SSW,208,0.0,2.0,61,0.00,,,0.00,Wunderground v.1.15,2013-11-12 02:05:00,
2013-11-11 21:09:00,47.9,35.1,30.14,SSW,207,0.0,2.0,61,0.00,,,0.00,Wunderground v.1.15,2013-11-12 02:09:00,
2013-11-11 21:10:00,48.0,35.2,30.14,SSW,208,0.0,0.0,61,0.00,,,0.00,Wunderground v.1.15,2013-11-12 02:10:00,
2013-11-11 21:11:00,48.1,35.3,30.14,SSW,207,0.0,0.0,61,0.00,,,0.00,Wunderground v.1.15,2013-11-12 02:11:00,
2013-11-11 21:14:00,48.2,36.2,30.14,SSW,208,0.0,0.0,63,0.00,,,0.00,Wunderground v.1.15,2013-11-12 02:14:00,
2013-11-11 21:15:00,48.2,37.4,30.14,SSW,208,0.0,0.0,66,0.00,,,0.00,Wunderground v.1.15,2013-11-12 02:15:00,
2013-11-11 21:16:00,48.2,36.2,30.14,SSW,208,0.0,0.0,63,0.00,,,0.00,Wunderground v.1.15,2013-11-12 02:16:00,
2013-11-11 21:18:00,48.2,36.6,30.14,SSW,207,0.0,0.0,64,0.00,,,0.00,Wunderground v.1.15,2013-11-12 02:18:00,
2013-11-11 21:19:00,48.2,36.6,30.14,SSW,207,0.0,0.0,64,0.00,,,0.00,Wunderground v.1.15,2013-11-12 02:19:00,
2013-11-11 21:20:00,48.2,36.6,30.14,SSW,208,0.0,0.0,64,0.00,,,0.00,Wunderground v.1.15,2013-11-12 02:20:00,
2013-11-11 21:21:00,48.1,36.9,30.14,SSW,208,0.0,0.0,65,0.00,,,0.00,Wunderground v.1.15,2013-11-12 02:21:00,
2013-11-11 21:22:00,48.1,36.9,30.14,SSW,208,0.0,0.0,65,0.00,,,0.00,Wunderground v.1.15,2013-11-12 02:22:00,
2013-11-11 21:24:00,48.0,36.0,30.14,SSW,208,0.0,0.0,63,0.00,,,0.00,Wunderground v.1.15,2013-11-12 02:24:00,
2013-11-11 21:25:00,47.9,36.3,30.14,SSW,208,0.0,0.0,64,0.00,,,0.00,Wunderground v.1.15,2013-11-12 02:25:00,
2013-11-11 21:26:00,47.9,36.3,30.14,SSW,208,1.0,1.0,64,0.00,,,0.00,Wunderground v.1.15,2013-11-12 02:26:00,
2013-11-11 21:27:00,47.9,36.3,30.14,SSW,208,1.0,1.0,64,0.00,,,0.00,Wunderground v.1.15,2013-11-12 02:27:00,
2013-11-11 21:30:00,47.8,37.0,30.14,SSW,207,0.0,1.0,66,0.00,,,0.00,Wunderground v.1.15,2013-11-12 02:30:00,
2013-11-11 21:31:00,47.8,36.6,30.14,SSW,208,1.0,1.0,65,0.00,,,0.00,Wunderground v.1.15,2013-11-12 02:31:00,
2013-11-11 21:32:00,47.8,35.8,30.14,SSW,208,1.0,2.0,63,0.00,,,0.00,Wunderground v.1.15,2013-11-12 02:32:00,
2013-11-11 21:33:00,47.8,35.4,30.14,SSW,208,1.0,2.0,62,0.00,,,0.00,Wunderground v.1.15,2013-11-12 02:33:00,
2013-11-11 21:35:00,47.9,35.9,30.14,SSW,208,0.0,2.0,63,0.00,,,0.00,Wunderground v.1.15,2013-11-12 02:35:00,
2013-11-11 21:36:00,47.9,35.9,30.14,SSW,208,0.0,2.0,63,0.00,,,0.00,Wunderground v.1.15,2013-11-12 02:36:00,
2013-11-11 21:37:00,47.9,35.9,30.14,SSW,208,0.0,2.0,63,0.00,,,0.00,Wunderground v.1.15,2013-11-12 02:37:00,
2013-11-11 21:38:00,47.9,35.1,30.14,SSW,207,0.0,2.0,61,0.00,,,0.00,Wunderground v.1.15,2013-11-12 02:38:00,
2013-11-11 21:41:00,48.0,36.4,30.14,SSW,207,0.0,1.0,64,0.00,,,0.00,Wunderground v.1.15,2013-11-12 02:41:00,
2013-11-11 21:42:00,48.0,36.4,30.14,SSW,207,0.0,1.0,64,0.00,,,0.00,Wunderground v.1.15,2013-11-12 02:42:00,
2013-11-11 21:44:00,48.0,36.8,30.15,SSW,208,0.0,1.0,65,0.00,,,0.00,Wunderground v.1.15,2013-11-12 02:44:00,
2013-11-11 21:46:00,48.0,37.6,30.14,SSW,208,0.0,1.0,67,0.00,,,0.00,Wunderground v.1.15,2013-11-12 02:46:00,
2013-11-11 21:47:00,48.0,37.9,30.14,SSW,208,0.0,1.0,68,0.00,,,0.00,Wunderground v.1.15,2013-11-12 02:47:00,
2013-11-11 21:48:00,47.9,37.8,30.14,SSW,208,0.0,1.0,68,0.00,,,0.00,Wunderground v.1.15,2013-11-12 02:48:00,
2013-11-11 21:49:00,47.9,37.5,30.14,SSW,208,1.0,1.0,67,0.00,,,0.00,Wunderground v.1.15,2013-11-12 02:49:00,
2013-11-11 21:50:00,47.8,37.4,30.14,SSW,207,1.0,1.0,67,0.00,,,0.00,Wunderground v.1.15,2013-11-12 02:50:00,
2013-11-11 21:51:00,47.8,37.0,30.14,SSW,208,0.0,1.0,66,0.00,,,0.00,Wunderground v.1.15,2013-11-12 02:51:00,
2013-11-11 21:52:00,47.8,37.0,30.14,SSW,207,0.0,1.0,66,0.00,,,0.00,Wunderground v.1.15,2013-11-12 02:52:00,
2013-11-11 21:53:00,47.7,36.5,30.15,SSW,208,0.0,1.0,65,0.00,,,0.00,Wunderground v.1.15,2013-11-12 02:53:00,
2013-11-11 21:54:00,47.7,36.5,30.14,SSW,208,1.0,2.0,65,0.00,,,0.00,Wunderground v.1.15,2013-11-12 02:54:00,
2013-11-11 21:55:00,47.7,36.9,30.14,SSW,207,0.0,2.0,66,0.00,,,0.00,Wunderground v.1.15,2013-11-12 02:55:00,
2013-11-11 21:57:00,47.7,36.5,30.14,SSW,208,1.0,2.0,65,0.00,,,0.00,Wunderground v.1.15,2013-11-12 02:57:00,
2013-11-11 21:58:00,47.7,36.5,30.14,SSW,208,0.0,2.0,65,0.00,,,0.00,Wunderground v.1.15,2013-11-12 02:58:00,
2013-11-11 21:59:00,47.7,36.9,30.14,SSW,208,0.0,2.0,66,0.00,,,0.00,Wunderground v.1.15,2013-11-12 02:59:00,
2013-11-11 22:00:00,47.8,36.6,30.14,SSW,207,0.0,0.0,65,0.00,,,0.00,Wunderground v.1.15,2013-11-12 03:00:00,
2013-11-11 22:02:00,47.8,36.6,30.14,SSW,207,0.0,0.0,65,0.00,,,0.00,Wunderground v.1.15,2013-11-12 03:02:00,
2013-11-11 22:03:00,47.8,36.6,30.14,SSW,208,0.0,0.0,65,0.00,,,0.00,Wunderground v.1.15,2013-11-12 03:03:00,
2013-11-11 22:05:00,47.9,37.1,30.14,SSW,208,0.0,0.0,66,0.00,,,0.00,Wunderground v.1.15,2013-11-12 03:05:00,
2013-11-11 22:07:00,47.9,36.7,30.14,SSW,207,0.0,1.0,65,0.00,,,0.00,Wunderground v.1.15,2013-11-12 03:07:00,
2013-11-11 22:08:00,47.9,36.7,30.14,SSW,207,0.0,1.0,65,0.00,,,0.00,Wunderground v.1.15,2013-11-12 03:08:00,
2013-11-11 22:09:00,48.0,36.8,30.14,SSW,208,1.0,1.0,65,0.00,,,0.00,Wunderground v.1.15,2013-11-12 03:09:00,
2013-11-11 22:10:00,48.0,36.4,30.14,SSW,208,0.0,3.0,64,0.00,,,0.00,Wunderground v.1.15,2013-11-12 03:10:00,
2013-11-11 22:13:00,48.2,37.0,30.14,SSW,207,0.0,3.0,65,0.00,,,0.00,Wunderground v.1.15,2013-11-12 03:13:00,
2013-11-11 22:14:00,48.2,37.0,30.14,SSW,207,0.0,3.0,65,0.00,,,0.00,Wunderground v.1.15,2013-11-12 03:14:00,
2013-11-11 22:16:00,48.3,38.2,30.14,SSW,208,0.0,3.0,68,0.00,,,0.00,Wunderground v.1.15,2013-11-12 03:16:00,
2013-11-11 22:18:00,48.3,38.2,30.14,SSW,208,0.0,3.0,68,0.00,,,0.00,Wunderground v.1.15,2013-11-12 03:18:00,
2013-11-11 22:19:00,48.4,38.3,30.14,SSW,207,0.0,3.0,68,0.00,,,0.00,Wunderground v.1.15,2013-11-12 03:19:00,
2013-11-11 22:21:00,48.4,38.7,30.14,SSW,208,0.0,0.0,69,0.00,,,0.00,Wunderground v.1.15,2013-11-12 03:21:00,
2013-11-11 22:23:00,48.3,38.2,30.14,SSW,208,0.0,0.0,68,0.00,,,0.00,Wunderground v.1.15,2013-11-12 03:23:00,
2013-11-11 22:25:00,48.3,38.2,30.14,SSW,208,0.0,0.0,68,0.00,,,0.00,Wunderground v.1.15,2013-11-12 03:25:00,
2013-11-11 22:26:00,48.2,38.5,30.14,SSW,208,0.0,0.0,69,0.00,,,0.00,Wunderground v.1.15,2013-11-12 03:26:00,
2013-11-11 22:27:00,48.2,39.6,30.14,SSW,208,0.0,0.0,72,0.00,,,0.00,Wunderground v.1.15,2013-11-12 03:27:00,
2013-11-11 22:29:00,48.1,38.4,30.14,SSW,208,0.0,0.0,69,0.00,,,0.00,Wunderground v.1.15,2013-11-12 03:29:00,
2013-11-11 22:30:00,48.1,38.4,30.14,SSW,208,1.0,1.0,69,0.00,,,0.00,Wunderground v.1.15,2013-11-12 03:30:00,
2013-11-11 22:31:00,48.0,37.2,30.14,SSW,207,0.0,2.0,66,0.00,,,0.00,Wunderground v.1.15,2013-11-12 03:31:00,
2013-11-11 22:34:00,47.9,37.1,30.15,SSW,207,0.0,2.0,66,0.00,,,0.00,Wunderground v.1.15,2013-11-12 03:34:00,
2013-11-11 22:36:00,47.9,37.1,30.14,SSW,208,0.0,2.0,66,0.00,,,0.00,Wunderground v.1.15,2013-11-12 03:36:00,
2013-11-11 22:39:00,47.9,37.5,30.14,SSW,208,0.0,2.0,67,0.00,,,0.00,Wunderground v.1.15,2013-11-12 03:39:00,
2013-11-11 22:40:00,47.9,37.1,30.14,SSW,207,0.0,0.0,66,0.00,,,0.00,Wunderground v.1.15,2013-11-12 03:40:00,
2013-11-11 22:41:00,47.8,37.0,30.14,SSW,207,0.0,0.0,66,0.00,,,0.00,Wunderground v.1.15,2013-11-12 03:41:00,
2013-11-11 22:44:00,47.8,37.0,30.14,SSW,207,0.0,0.0,66,0.00,,,0.00,Wunderground v.1.15,2013-11-12 03:44:00,
2013-11-11 22:45:00,47.8,37.0,30.15,SSW,208,0.0,0.0,66,0.00,,,0.00,Wunderground v.1.15,2013-11-12 03:45:00,
2013-11-11 22:46:00,47.8,37.0,30.15,SSW,208,0.0,0.0,66,0.00,,,0.00,Wunderground v.1.15,2013-11-12 03:46:00,
2013-11-11 22:49:00,47.8,37.0,30.15,SSW,207,0.0,0.0,66,0.00,,,0.00,Wunderground v.1.15,2013-11-12 03:49:00,
2013-11-11 22:50:00,47.8,37.0,30.15,SSW,207,0.0,0.0,66,0.00,,,0.00,Wunderground v.1.15,2013-11-12 03:50:00,
2013-11-11 22:52:00,47.8,37.0,30.15,SSW,208,0.0,0.0,66,0.00,,,0.00,Wunderground v.1.15,2013-11-12 03:52:00,
2013-11-11 22:55:00,47.8,37.0,30.15,SSW,208,0.0,0.0,66,0.00,,,0.00,Wunderground v.1.15,2013-11-12 03:55:00,
2013-11-11 22:56:00,47.8,37.4,30.15,SSW,207,0.0,0.0,67,0.00,,,0.00,Wunderground v.1.15,2013-11-12 03:56:00,
2013-11-11 22:57:00,47.8,37.7,30.15,SSW,207,0.0,0.0,68,0.00,,,0.00,Wunderground v.1.15,2013-11-12 03:57:00,
2013-11-11 22:58:00,47.8,37.7,30.15,SSW,207,0.0,0.0,68,0.00,,,0.00,Wunderground v.1.15,2013-11-12 03:58:00,
2013-11-11 23:00:00,47.8,38.1,30.15,SSW,208,0.0,0.0,69,0.00,,,0.00,Wunderground v.1.15,2013-11-12 04:00:00,
2013-11-11 23:01:00,47.8,37.7,30.15,SSW,208,0.0,0.0,68,0.00,,,0.00,Wunderground v.1.15,2013-11-12 04:01:00,
2013-11-11 23:02:00,47.8,37.7,30.15,SSW,207,0.0,0.0,68,0.00,,,0.00,Wunderground v.1.15,2013-11-12 04:02:00,
2013-11-11 23:03:00,47.7,37.7,30.15,SSW,207,0.0,0.0,68,0.00,,,0.00,Wunderground v.1.15,2013-11-12 04:03:00,
2013-11-11 23:05:00,47.7,37.7,30.15,SSW,208,0.0,0.0,68,0.00,,,0.00,Wunderground v.1.15,2013-11-12 04:05:00,
2013-11-11 23:06:00,47.6,37.2,30.15,SSW,208,0.0,0.0,67,0.00,,,0.00,Wunderground v.1.15,2013-11-12 04:06:00,
2013-11-11 23:07:00,47.6,37.6,30.15,SSW,208,0.0,0.0,68,0.00,,,0.00,Wunderground v.1.15,2013-11-12 04:07:00,
2013-11-11 23:08:00,47.6,37.2,30.15,SSW,207,0.0,0.0,67,0.00,,,0.00,Wunderground v.1.15,2013-11-12 04:08:00,
2013-11-11 23:09:00,47.6,37.6,30.15,SSW,207,0.0,0.0,68,0.00,,,0.00,Wunderground v.1.15,2013-11-12 04:09:00,
2013-11-11 23:10:00,47.5,37.1,30.15,SSW,207,0.0,0.0,67,0.00,,,0.00,Wunderground v.1.15,2013-11-12 04:10:00,
2013-11-11 23:11:00,47.5,37.5,30.15,SSW,207,0.0,0.0,68,0.00,,,0.00,Wunderground v.1.15,2013-11-12 04:11:00,
2013-11-11 23:12:00,47.5,37.5,30.15,SSW,208,0.0,0.0,68,0.00,,,0.00,Wunderground v.1.15,2013-11-12 04:12:00,
2013-11-11 23:14:00,47.5,38.2,30.15,SSW,208,0.0,0.0,70,0.00,,,0.00,Wunderground v.1.15,2013-11-12 04:14:00,
2013-11-11 23:15:00,47.5,38.2,30.15,SSW,207,0.0,0.0,70,0.00,,,0.00,Wunderground v.1.15,2013-11-12 04:15:00,
2013-11-11 23:16:00,47.5,38.2,30.15,SSW,208,0.0,0.0,70,0.00,,,0.00,Wunderground v.1.15,2013-11-12 04:16:00,
2013-11-11 23:19:00,47.4,37.7,30.15,SSW,207,0.0,0.0,69,0.00,,,0.00,Wunderground v.1.15,2013-11-12 04:19:00,
2013-11-11 23:20:00,47.4,37.7,30.15,SSW,208,0.0,0.0,69,0.00,,,0.00,Wunderground v.1.15,2013-11-12 04:20:00,
2013-11-11 23:21:00,47.4,37.7,30.15,SSW,207,0.0,0.0,69,0.00,,,0.00,Wunderground v.1.15,2013-11-12 04:21:00,
2013-11-11 23:24:00,47.3,37.6,30.15,SSW,208,0.0,0.0,69,0.00,,,0.00,Wunderground v.1.15,2013-11-12 04:24:00,
2013-11-11 23:25:00,47.3,37.6,30.15,SSW,207,0.0,0.0,69,0.00,,,0.00,Wunderground v.1.15,2013-11-12 04:25:00,
2013-11-11 23:26:00,47.3,38.0,30.15,SSW,207,0.0,0.0,70,0.00,,,0.00,Wunderground v.1.15,2013-11-12 04:26:00,
2013-11-11 23:29:00,47.2,37.9,30.15,SSW,207,0.0,0.0,70,0.00,,,0.00,Wunderground v.1.15,2013-11-12 04:29:00,
2013-11-11 23:30:00,47.2,37.9,30.15,SSW,208,0.0,0.0,70,0.00,,,0.00,Wunderground v.1.15,2013-11-12 04:30:00,
2013-11-11 23:31:00,47.2,37.9,30.15,SSW,208,0.0,0.0,70,0.00,,,0.00,Wunderground v.1.15,2013-11-12 04:31:00,
2013-11-11 23:32:00,47.2,37.9,30.15,SSW,208,0.0,0.0,70,0.00,,,0.00,Wunderground v.1.15,2013-11-12 04:32:00,
2013-11-11 23:34:00,47.1,37.8,30.15,SSW,208,0.0,1.0,70,0.00,,,0.00,Wunderground v.1.15,2013-11-12 04:34:00,
2013-11-11 23:36:00,47.1,38.5,30.15,SSW,207,0.0,1.0,72,0.00,,,0.00,Wunderground v.1.15,2013-11-12 04:36:00,
2013-11-11 23:37:00,47.1,38.5,30.15,SSW,207,1.0,2.0,72,0.00,,,0.00,Wunderground v.1.15,2013-11-12 04:37:00,
2013-11-11 23:39:00,47.0,38.4,30.15,SSW,208,0.0,2.0,72,0.00,,,0.00,Wunderground v.1.15,2013-11-12 04:39:00,
2013-11-11 23:41:00,47.0,38.4,30.15,SSW,208,1.0,1.0,72,0.00,,,0.00,Wunderground v.1.15,2013-11-12 04:41:00,
2013-11-11 23:43:00,47.0,38.4,30.15,SSW,207,2.0,2.0,72,0.00,,,0.00,Wunderground v.1.15,2013-11-12 04:43:00,
2013-11-11 23:44:00,46.9,38.0,30.16,SSW,207,1.0,2.0,71,0.00,,,0.00,Wunderground v.1.15,2013-11-12 04:44:00,
2013-11-11 23:45:00,46.9,38.0,30.16,SSW,207,0.0,2.0,71,0.00,,,0.00,Wunderground v.1.15,2013-11-12 04:45:00,
2013-11-11 23:46:00,46.9,38.3,30.16,SSW,208,0.0,2.0,72,0.00,,,0.00,Wunderground v.1.15,2013-11-12 04:46:00,
2013-11-11 23:47:00,46.8,38.2,30.16,SSW,207,0.0,2.0,72,0.00,,,0.00,Wunderground v.1.15,2013-11-12 04:47:00,
2013-11-11 23:49:00,46.8,37.9,30.16,SSW,207,0.0,2.0,71,0.00,,,0.00,Wunderground v.1.15,2013-11-12 04:49:00,
2013-11-11 23:50:00,46.7,37.4,30.16,SSW,207,0.0,1.0,70,0.00,,,0.00,Wunderground v.1.15,2013-11-12 04:50:00,
2013-11-11 23:52:00,46.7,37.8,30.16,SSW,207,0.0,1.0,71,0.00,,,0.00,Wunderground v.1.15,2013-11-12 04:52:00,
2013-11-11 23:54:00,46.7,37.8,30.16,SSW,208,0.0,1.0,71,0.00,,,0.00,Wunderground v.1.15,2013-11-12 04:54:00,
2013-11-11 23:55:00,46.7,37.8,30.16,SSW,208,0.0,1.0,71,0.00,,,0.00,Wunderground v.1.15,2013-11-12 04:55:00,
2013-11-11 23:56:00,46.7,37.8,30.16,SSW,207,0.0,1.0,71,0.00,,,0.00,Wunderground v.1.15,2013-11-12 04:56:00,
2013-11-11 23:57:00,46.7,38.1,30.16,SSW,207,0.0,1.0,72,0.00,,,0.00,Wunderground v.1.15,2013-11-12 04:57:00,
2013-11-11 23:58:00,46.7,38.1,30.16,SSW,208,0.0,1.0,72,0.00,,,0.00,Wunderground v.1.15,2013-11-12 04:58:00,